M I D A S
Marine Information and Data Acquisition System
Tripno 1603 of the Zeeleeuw from 2008-09-08 06:17:00 to 2008-09-08 12:45:18
Back to CruiseResearch ActivitiesStationsMapUnderway DataData graphs

EquipmentUnitsComment
TimeDGPSUTC
LatitudeDGPSDM.mWGS84
LongitudeDGPSDM.mWGS84
TemperatureSBE03/SBE38deg celciusITS90
ConductivitySBE21S/mITS90
SalinitySBE21 Practical Salinity Units
ChlorophylAChelsea fluorimeterg/lCalibrated in Aceton
Missing or incorrect values are displayed as -999
Sea surface data collected by the RV Zeeleeuw from 2008-09-08 06:17:33 to 2008-09-08 12:58:44
                                                                                    Next 1000 lines
Time Latitude Longitude Temperature Conductivity Salinity ChlorophylA
2008-09-08 06:17:43 51°13.623 2°56.048 18.5447 0.065054 0.35867 -1.209513
2008-09-08 06:17:48 51°13.623 2°56.048 18.5488 0.065054 0.35867 -1.209513
2008-09-08 06:17:53 51°13.623 2°56.048 18.5493 0.065054 0.35867 -1.209513
2008-09-08 06:17:58 51°13.623 2°56.048 18.5493 0.065054 0.358677 -1.209513
2008-09-08 06:18:03 51°13.623 2°56.048 18.5526 0.065054 0.358677 -1.209513
2008-09-08 06:18:08 51°13.623 2°56.048 18.554 0.065054 0.358677 -1.209513
2008-09-08 06:18:13 51°13.623 2°56.048 18.554 0.065054 0.358677 -1.209513
2008-09-08 06:18:18 51°13.623 2°56.048 18.5534 0.065054 0.358683 -1.209513
2008-09-08 06:18:23 51°13.623 2°56.048 18.5518 0.065054 0.358683 -1.244337
2008-09-08 06:18:28 51°13.622 2°56.048 18.5501 0.065054 0.358683 -1.209513
2008-09-08 06:18:33 51°13.622 2°56.048 18.5487 0.065054 0.358683 -1.209513
2008-09-08 06:18:38 51°13.622 2°56.048 18.5498 0.065054 0.358683 -1.209513
2008-09-08 06:18:43 51°13.622 2°56.048 18.5481 0.065054 0.358683 -1.209513
2008-09-08 06:18:48 51°13.622 2°56.047 18.5472 0.065054 0.35869 -1.209513
2008-09-08 06:18:53 51°13.622 2°56.046 18.5403 0.065054 0.35869 -1.244337
2008-09-08 06:18:58 51°13.623 2°56.045 18.5363 0.065054 0.35869 -1.209513
2008-09-08 06:19:03 51°13.623 2°56.043 18.5047 0.065054 0.35869 -1.244337
2008-09-08 06:19:08 51°13.624 2°56.041 18.5325 0.065054 0.35869 -1.244337
2008-09-08 06:19:13 51°13.625 2°56.038 18.5242 0.065054 0.35869 -1.209513
2008-09-08 06:19:18 51°13.626 2°56.035 18.5249 0.065054 0.358696 -1.209513
2008-09-08 06:19:23 51°13.627 2°56.031 18.5327 0.065054 0.358702 -1.209513
2008-09-08 06:19:28 51°13.628 2°56.026 18.5307 0.065054 0.358702 -1.209513
2008-09-08 06:19:33 51°13.629 2°56.022 18.5255 0.065054 0.358702 -1.209513
2008-09-08 06:19:38 51°13.631 2°56.016 18.5452 0.065054 0.358702 -1.209513
2008-09-08 06:19:43 51°13.632 2°56.011 18.5407 0.065054 0.358702 -1.209513
2008-09-08 06:19:48 51°13.633 2°56.005 1 0.065054 0.358696 -1.209513
2008-09-08 06:19:53 51°13.635 2°55.999 18.5308 0.065054 0.358696 -1.244337
2008-09-08 06:19:58 51°13.636 2°55.992 18.5387 0.065054 0.358702 -1.209513
2008-09-08 06:20:03 51°13.638 2°55.986 18.5378 0.065054 0.358696 -1.209513
2008-09-08 06:20:08 51°13.639 2°55.978 18.5428 0.065054 0.358696 -1.209513
2008-09-08 06:20:13 51°13.641 2°55.971 18.5247 0.065054 0.358696 -1.209513
2008-09-08 06:20:18 51°13.643 2°55.963 18.5402 0.065054 0.358702 -1.209513
2008-09-08 06:20:23 51°13.645 2°55.955 18.5356 0.065054 0.358702 -1.209513
2008-09-08 06:20:28 51°13.647 2°55.946 18.5392 0.065054 0.358715 -1.209513
2008-09-08 06:20:33 51°13.65 2°55.937 18.5394 0.065054 0.358722 -1.209513
2008-09-08 06:20:38 51°13.653 2°55.928 18.5417 0.065054 0.358722 -1.209513
2008-09-08 06:20:43 51°13.655 2°55.919 18.5436 0.065054 0.358728 -1.209513
2008-09-08 06:20:48 51°13.659 2°55.91 18.5432 0.065054 0.358735 -1.209513
2008-09-08 06:20:53 51°13.662 2°55.901 18.5421 0.065054 0.358735 -1.209513
2008-09-08 06:20:58 51°13.665 2°55.892 18.5442 0.065054 0.358741 -1.209513
2008-09-08 06:21:03 51°13.669 2°55.883 18.5435 0.065054 0.358741 -1.209513
2008-09-08 06:21:08 51°13.673 2°55.874 18.5437 0.065054 0.358741 -1.209513
2008-09-08 06:21:13 51°13.677 2°55.865 18.5427 0.065054 0.358747 -1.209513
2008-09-08 06:21:18 51°13.681 2°55.855 18.5432 0.065054 0.358747 -1.209513
2008-09-08 06:21:23 51°13.685 2°55.846 18.5428 0.065054 0.358741 -1.209513
2008-09-08 06:21:28 51°13.689 2°55.837 18.5463 0.065054 0.358747 -1.209513
2008-09-08 06:21:33 51°13.694 2°55.828 18.5467 0.065054 0.358741 -1.209513
2008-09-08 06:21:38 51°13.698 2°55.819 18.5452 0.065054 0.358741 -1.209513
2008-09-08 06:21:43 51°13.703 2°55.809 18.5503 0.065054 0.358741 -1.209513
2008-09-08 06:21:48 51°13.707 2°55.8 18.5488 0.065054 0.358741 -1.209513
2008-09-08 06:21:53 51°13.712 2°55.792 18.5553 0.065054 0.358741 -1.209513
2008-09-08 06:21:58 51°13.717 2°55.783 18.5392 0.065054 0.358741 -1.209513
2008-09-08 06:22:03 51°13.722 2°55.774 18.5372 0.065054 0.358741 -1.209513
2008-09-08 06:22:08 51°13.727 2°55.766 18.5403 0.065054 0.358741 -1.209513
2008-09-08 06:22:13 51°13.732 2°55.757 18.5483 0.065054 0.358741 -1.209513
2008-09-08 06:22:18 51°13.737 2°55.749 18.5424 0.065054 0.358741 -1.209513
2008-09-08 06:22:23 51°13.742 2°55.741 18.5519 0.065054 0.358741 -1.209513
2008-09-08 06:22:28 51°13.748 2°55.734 18.5533 0.065054 0.358741 -1.209513
2008-09-08 06:22:33 51°13.754 2°55.726 18.55 0.065054 0.358741 -1.209513
2008-09-08 06:22:38 51°13.76 2°55.719 18.5251 0.065054 0.358741 -1.209513
2008-09-08 06:22:43 51°13.766 2°55.711 18.5416 0.065054 0.358747 -1.209513
2008-09-08 06:22:48 51°13.772 2°55.704 18.5346 0.065054 0.358747 -1.209513
2008-09-08 06:22:53 51°13.778 2°55.697 18.541 0.065054 0.358754 -1.209513
2008-09-08 06:22:58 51°13.784 2°55.69 18.5397 0.065054 0.358754 -1.244337
2008-09-08 06:23:03 51°13.79 2°55.683 18.5388 0.065054 0.358754 -1.209513
2008-09-08 06:23:08 51°13.797 2°55.677 18.5445 0.065054 0.358754 -1.209513
2008-09-08 06:23:13 51°13.803 2°55.67 18.5409 0.065054 0.358754 -1.209513
2008-09-08 06:23:18 51°13.81 2°55.664 18.549 0.065054 0.35876 -1.209513
2008-09-08 06:23:23 51°13.817 2°55.659 18.5474 0.065054 0.35876 -1.209513
2008-09-08 06:23:28 51°13.824 2°55.653 18.5529 0.065054 0.358767 -1.209513
2008-09-08 06:23:33 51°13.83 2°55.649 18.5649 0.065054 0.358767 -1.209513
2008-09-08 06:23:38 51°13.837 2°55.645 18.5621 0.065054 0.358767 -1.209513
2008-09-08 06:23:43 51°13.843 2°55.642 18.5541 0.065054 0.358767 -1.244337
2008-09-08 06:23:48 51°13.849 2°55.639 18.552 0.065054 0.358773 -1.209513
2008-09-08 06:23:53 51°13.856 2°55.637 18.5473 0.065054 0.358779 -1.209513
2008-09-08 06:23:58 51°13.861 2°55.635 18.5482 0.065054 0.358779 -1.209513
2008-09-08 06:24:03 51°13.867 2°55.634 18.5548 0.065054 0.358779 -1.244337
2008-09-08 06:24:08 51°13.872 2°55.632 18.5535 0.065054 0.358779 -1.244337
2008-09-08 06:24:13 51°13.877 2°55.632 18.5589 0.065054 0.358779 -1.209513
2008-09-08 06:24:18 51°13.882 2°55.631 18.5545 0.065054 0.358786 -1.209513
2008-09-08 06:24:23 51°13.887 2°55.631 18.5517 0.065054 0.358786 -1.244337
2008-09-08 06:24:28 51°13.891 2°55.631 18.5394 0.065054 0.358786 -1.209513
2008-09-08 06:24:33 51°13.895 2°55.632 18.5464 0.065054 0.358786 -1.209513
2008-09-08 06:24:38 51°13.899 2°55.632 18.5426 0.065054 0.358786 -1.209513
2008-09-08 06:24:43 51°13.903 2°55.633 18.5461 0.065054 0.358792 -1.209513
2008-09-08 06:24:48 51°13.906 2°55.634 18.548 0.065054 0.358792 -1.209513
2008-09-08 06:24:53 51°13.91 2°55.635 18.5452 0.065054 0.358792 -1.209513
2008-09-08 06:24:58 51°13.913 2°55.637 18.5487 0.065054 0.358792 -1.209513
2008-09-08 06:25:03 51°13.916 2°55.638 18.5436 0.065054 0.358792 -1.209513
2008-09-08 06:25:08 51°13.919 2°55.639 18.5301 0.065054 0.358792 -1.209513
2008-09-08 06:25:13 51°13.922 2°55.641 18.5298 0.065054 0.358799 -1.209513
2008-09-08 06:25:18 51°13.925 2°55.643 18.5425 0.065054 0.358799 -1.209513
2008-09-08 06:25:23 51°13.928 2°55.644 18.5398 0.065054 0.358799 -1.209513
2008-09-08 06:25:28 51°13.93 2°55.646 18.5469 0.065054 0.358799 -1.209513
2008-09-08 06:25:33 51°13.933 2°55.648 18.553 0.065054 0.358799 -1.209513
2008-09-08 06:25:38 51°13.935 2°55.65 18.542 0.065054 0.358799 -1.209513
2008-09-08 06:25:43 51°13.937 2°55.651 18.5516 0.065054 0.358805 -1.244337
2008-09-08 06:25:48 51°13.939 2°55.653 18.5428 0.065054 0.358805 -1.209513
2008-09-08 06:25:53 51°13.941 2°55.655 18.5428 0.065054 0.358805 -1.209513
2008-09-08 06:25:58 51°13.943 2°55.657 18.5453 0.065054 0.358805 -1.209513
2008-09-08 06:26:03 51°13.945 2°55.659 18.5364 0.065054 0.358812 -1.209513
2008-09-08 06:26:08 51°13.947 2°55.661 18.5345 0.065054 0.358812 -1.209513
2008-09-08 06:26:13 51°13.949 2°55.663 18.5451 0.065054 0.358812 -1.209513
2008-09-08 06:26:18 51°13.95 2°55.665 18.5382 0.065054 0.358818 -1.209513
2008-09-08 06:26:23 51°13.952 2°55.667 18.5481 0.065054 0.358818 -1.209513
2008-09-08 06:26:27 51°13.953 2°55.668 18.5374 0.065054 0.358818 -1.209513
2008-09-08 06:26:32 51°13.955 2°55.67 18.5528 0.065054 0.358818 -1.209513
2008-09-08 06:26:38 51°13.957 2°55.672 18.5506 0.065054 0.358818 -1.209513
2008-09-08 06:26:42 51°13.958 2°55.674 18.5435 0.065054 0.358824 -1.209513
2008-09-08 06:26:47 51°13.959 2°55.676 18.5454 0.065054 0.358824 -1.209513
2008-09-08 06:26:52 51°13.96 2°55.678 18.5437 0.065054 0.358824 -1.244337
2008-09-08 06:26:57 51°13.962 2°55.68 18.5454 0.065054 0.358824 -1.209513
2008-09-08 06:27:02 51°13.963 2°55.682 18.5478 0.065054 0.358831 -1.244337
2008-09-08 06:27:07 51°13.964 2°55.683 18.5466 0.065054 0.358831 -1.244337
2008-09-08 06:27:12 51°13.965 2°55.685 18.5442 0.065054 0.358831 -1.209513
2008-09-08 06:27:16 51°13.965 2°55.687 18.5443 0.065054 0.358831 -1.209513
2008-09-08 06:27:22 51°13.966 2°55.689 18.5445 0.065054 0.358831 -1.209513
2008-09-08 06:27:26 51°13.967 2°55.69 18.5355 0.065054 0.358837 -1.209513
2008-09-08 06:27:31 51°13.968 2°55.692 18.5429 0.065054 0.358837 -1.209513
2008-09-08 06:27:36 51°13.968 2°55.694 18.54 0.065054 0.358837 -1.209513
2008-09-08 06:27:41 51°13.969 2°55.696 18.5472 0.065054 0.358837 -1.209513
2008-09-08 06:27:46 51°13.97 2°55.697 18.5436 0.065054 0.358844 -1.209513
2008-09-08 06:27:51 51°13.97 2°55.698 18.5501 0.065054 0.358844 -1.209513
2008-09-08 06:27:56 51°13.971 2°55.699 18.5516 0.065054 0.358844 -1.209513
2008-09-08 06:28:01 51°13.971 2°55.7 18.5475 0.065054 0.35885 -1.209513
2008-09-08 06:28:06 51°13.971 2°55.701 18.5453 0.065054 0.35885 -1.209513
2008-09-08 06:28:11 51°13.971 2°55.701 18.5464 0.065054 0.35885 -1.209513
2008-09-08 06:28:15 51°13.972 2°55.701 18.542 0.065054 0.35885 -1.209513
2008-09-08 06:28:20 51°13.972 2°55.701 18.5498 0.065054 0.35885 -1.209513
2008-09-08 06:28:25 51°13.973 2°55.701 18.5496 0.065054 0.358857 -1.209513
2008-09-08 06:28:30 51°13.973 2°55.701 18.5517 0.065054 0.358857 -1.209513
2008-09-08 06:28:35 51°13.974 2°55.7 18.5485 0.065054 0.358857 -1.209513
2008-09-08 06:28:40 51°13.974 2°55.7 18.5422 0.065054 0.358857 -1.209513
2008-09-08 06:28:45 51°13.975 2°55.699 18.5392 0.065054 0.358857 -1.209513
2008-09-08 06:28:50 51°13.976 2°55.699 18.5511 0.065054 0.358863 -1.209513
2008-09-08 06:28:54 51°13.976 2°55.699 18.5365 0.065054 0.358863 -1.209513
2008-09-08 06:29:00 51°13.977 2°55.698 18.5364 0.065054 0.358869 -1.209513
2008-09-08 06:29:05 51°13.977 2°55.698 18.5458 0.065054 0.358869 -1.209513
2008-09-08 06:29:10 51°13.978 2°55.698 18.5418 0.065054 0.358869 -1.209513
2008-09-08 06:29:14 51°13.978 2°55.698 18.5429 0.065054 0.358869 -1.209513
2008-09-08 06:29:19 51°13.978 2°55.698 18.5446 0.065054 0.358876 -1.209513
2008-09-08 06:29:24 51°13.979 2°55.698 18.5526 0.065054 0.358876 -1.209513
2008-09-08 06:29:30 51°13.979 2°55.697 18.553 0.065054 0.358876 -1.244337
2008-09-08 06:29:34 51°13.98 2°55.697 18.5596 0.065054 0.358876 -1.244337
2008-09-08 06:29:39 51°13.98 2°55.697 18.5568 0.065054 0.358876 -1.209513
2008-09-08 06:29:44 51°13.981 2°55.695 18.5573 0.065054 0.358876 -1.209513
2008-09-08 06:29:50 51°13.983 2°55.694 18.5572 0.065054 0.358876 -1.244337
2008-09-08 06:29:54 51°13.983 2°55.692 18.5672 0.065054 0.358882 -1.209513
2008-09-08 06:29:59 51°13.985 2°55.689 18.5674 0.065054 0.358882 -1.209513
2008-09-08 06:30:04 51°13.988 2°55.685 18.568 0.065054 0.358882 -1.209513
2008-09-08 06:30:10 51°13.991 2°55.678 18.5591 0.065054 0.358882 -1.209513
2008-09-08 06:30:14 51°13.994 2°55.672 18.557 0.065054 0.358882 -1.209513
2008-09-08 06:30:19 51°13.998 2°55.664 18.5578 0.065054 0.358882 -1.209513
2008-09-08 06:30:24 51°14.003 2°55.656 18.5495 0.065054 0.358889 -1.209513
2008-09-08 06:30:29 51°14.008 2°55.645 18.5369 0.065054 0.358882 -1.209513
2008-09-08 06:30:34 51°14.014 2°55.634 18.5575 0.065054 0.358882 -1.209513
2008-09-08 06:30:39 51°14.02 2°55.623 18.5359 0.065054 0.358895 -1.209513
2008-09-08 06:30:44 51°14.027 2°55.61 18.5363 0.065054 0.358895 -1.209513
2008-09-08 06:30:50 51°14.035 2°55.594 18.5338 0.065054 0.358895 -1.209513
2008-09-08 06:30:54 51°14.041 2°55.583 18.5423 0.065054 0.358895 -1.209513
2008-09-08 06:30:59 51°14.048 2°55.569 18.5407 0.065054 0.358902 -1.209513
2008-09-08 06:31:04 51°14.056 2°55.554 18.543 0.065054 0.358902 -1.209513
2008-09-08 06:31:09 51°14.063 2°55.539 18.5368 0.065054 0.358908 -1.209513
2008-09-08 06:31:14 51°14.071 2°55.523 18.5132 0.065054 0.358908 -1.209513
2008-09-08 06:31:19 51°14.079 2°55.508 18.5345 0.065054 0.358902 -1.209513
2008-09-08 06:31:24 51°14.087 2°55.493 18.5365 0.065054 0.358902 -1.209513
2008-09-08 06:31:30 51°14.098 2°55.475 18.5196 0.065054 0.358908 -1.209513
2008-09-08 06:31:34 51°14.105 2°55.463 18.5216 0.065054 0.358908 -1.209513
2008-09-08 06:31:39 51°14.114 2°55.448 18.5254 0.065054 0.358908 -1.209513
2008-09-08 06:31:44 51°14.123 2°55.433 18.5101 0.065054 0.358914 -1.209513
2008-09-08 06:31:50 51°14.134 2°55.416 18.5152 0.065054 0.358908 -1.209513
2008-09-08 06:31:54 51°14.142 2°55.405 18.5286 0.065054 0.358914 -1.209513
2008-09-08 06:31:59 51°14.153 2°55.392 18.5399 0.065054 0.358914 -1.209513
2008-09-08 06:32:04 51°14.163 2°55.38 18.5485 0.065054 0.358914 -1.209513
2008-09-08 06:32:10 51°14.176 2°55.365 18.5432 0.065054 0.358921 -1.209513
2008-09-08 06:32:14 51°14.184 2°55.355 18.5363 0.065054 0.358927 -1.209513
2008-09-08 06:32:19 51°14.195 2°55.343 18.5443 0.065054 0.358927 -1.209513
2008-09-08 06:32:24 51°14.206 2°55.331 18.554 0.065054 0.358934 -1.209513
2008-09-08 06:32:30 51°14.219 2°55.316 18.5536 0.065054 0.35894 -1.209513
2008-09-08 06:32:34 51°14.227 2°55.306 18.541 0.065054 0.35894 -1.209513
2008-09-08 06:32:39 51°14.237 2°55.292 18.5417 0.065054 0.35894 -1.209513
2008-09-08 06:32:44 51°14.247 2°55.279 18.5589 0.065054 0.35894 -1.209513
2008-09-08 06:32:49 51°14.257 2°55.265 18.5505 0.065054 0.35894 -1.209513
2008-09-08 06:32:54 51°14.267 2°55.251 18.5555 0.065054 0.358947 -1.209513
2008-09-08 06:32:59 51°14.277 2°55.236 18.5331 0.065054 0.358947 -1.209513
2008-09-08 06:33:04 51°14.286 2°55.221 18.5402 0.065054 0.358947 -1.209513
2008-09-08 06:33:10 51°14.296 2°55.202 18.5336 0.065054 0.358947 -1.209513
2008-09-08 06:33:14 51°14.303 2°55.189 18.5309 0.065054 0.358947 -1.209513
2008-09-08 06:33:19 51°14.312 2°55.173 18.5107 0.065054 0.358947 -1.209513
2008-09-08 06:33:24 51°14.32 2°55.156 18.5265 0.065054 0.358947 -1.209513
2008-09-08 06:33:29 51°14.328 2°55.14 18.5098 0.065054 0.358953 -1.244337
2008-09-08 06:33:34 51°14.336 2°55.123 18.5297 0.065054 0.358953 -1.244337
2008-09-08 06:33:39 51°14.343 2°55.106 18.5324 0.065054 0.358959 -1.209513
2008-09-08 06:33:44 51°14.351 2°55.088 18.5367 0.065054 0.358959 -1.209513
2008-09-08 06:33:50 51°14.359 2°55.067 18.5101 0.065054 0.358959 -1.209513
2008-09-08 06:33:54 51°14.365 2°55.053 18.5006 0.065054 0.358966 -1.209513
2008-09-08 06:33:59 51°14.371 2°55.035 18.515 0.065054 0.358966 -1.209513
2008-09-08 06:34:04 51°14.378 2°55.017 18.505 0.065054 0.358966 -1.209513
2008-09-08 06:34:10 51°14.386 2°54.996 18.4913 0.065054 0.358966 -1.209513
2008-09-08 06:34:14 51°14.392 2°54.982 18.4917 0.065054 0.358966 -1.209513
2008-09-08 06:34:19 51°14.399 2°54.965 18.5186 0.065054 0.358966 -1.244337
2008-09-08 06:34:24 51°14.406 2°54.949 18.5172 0.065054 0.358966 -1.209513
2008-09-08 06:34:30 51°14.414 2°54.931 18.5231 0.065054 0.358966 -1.209513
2008-09-08 06:34:34 51°14.419 2°54.92 18.498 0.065054 0.358966 -1.209513
2008-09-08 06:34:39 51°14.426 2°54.906 18.508 0.065054 0.358972 -1.209513
2008-09-08 06:34:45 51°14.433 2°54.89 18.52 0.065054 0.358972 -1.209513
2008-09-08 06:34:50 51°14.439 2°54.878 18.513 0.065054 0.358979 -1.209513
2008-09-08 06:34:54 51°14.444 2°54.867 18.5128 0.065054 0.358979 -1.209513
2008-09-08 06:34:59 51°14.45 2°54.855 18.501 0.065054 0.358979 -1.244337
2008-09-08 06:35:04 51°14.455 2°54.843 18.501 0.065054 0.358979 -1.244337
2008-09-08 06:35:10 51°14.462 2°54.829 18.5124 0.065054 0.358985 -1.209513
2008-09-08 06:35:14 51°14.467 2°54.82 18.5192 0.065054 0.358985 -1.209513
2008-09-08 06:35:19 51°14.473 2°54.809 18.5117 0.065054 0.358992 -1.209513
2008-09-08 06:35:24 51°14.478 2°54.798 18.4894 0.065054 0.358992 -1.209513
2008-09-08 06:35:29 51°14.484 2°54.787 18.494 0.065054 0.358992 -1.209513
2008-09-08 06:35:34 51°14.489 2°54.777 18.506 0.065054 0.358992 -1.209513
2008-09-08 06:35:39 51°14.495 2°54.767 18.4953 0.065054 0.358992 -1.209513
2008-09-08 06:35:44 51°14.501 2°54.756 18.4967 0.065054 0.358992 -1.209513
2008-09-08 06:35:50 51°14.508 2°54.744 18.5045 0.065054 0.358998 -1.209513
2008-09-08 06:35:54 51°14.512 2°54.736 18.5053 0.065054 0.358998 -1.209513
2008-09-08 06:35:59 51°14.518 2°54.726 18.4881 0.065054 0.359004 -1.209513
2008-09-08 06:36:04 51°14.523 2°54.717 18.4864 0.065054 0.359004 -1.209513
2008-09-08 06:36:10 51°14.529 2°54.705 18.5023 0.065054 0.359004 -1.244337
2008-09-08 06:36:14 51°14.533 2°54.696 18.5098 0.065054 0.359011 -1.209513
2008-09-08 06:36:19 51°14.538 2°54.686 18.4879 0.065054 0.359011 -1.209513
2008-09-08 06:36:24 51°14.543 2°54.676 18.5026 0.065054 0.359017 -1.209513
2008-09-08 06:36:30 51°14.548 2°54.663 18.4952 0.065054 0.359011 -1.209513
2008-09-08 06:36:34 51°14.552 2°54.655 18.4921 0.065054 0.359011 -1.209513
2008-09-08 06:36:39 51°14.556 2°54.645 18.5031 0.065054 0.359011 -1.209513
2008-09-08 06:36:44 51°14.56 2°54.634 18.494 0.065054 0.359017 -1.244337
2008-09-08 06:36:50 51°14.565 2°54.621 18.4926 0.065054 0.359011 -1.209513
2008-09-08 06:36:54 51°14.569 2°54.612 18.4949 0.065054 0.359017 -1.209513
2008-09-08 06:36:59 51°14.573 2°54.602 18.4803 0.065054 0.359017 -1.209513
2008-09-08 06:37:04 51°14.577 2°54.591 18.4955 0.065054 0.359017 -1.209513
2008-09-08 06:37:10 51°14.583 2°54.578 18.5005 0.065054 0.359017 -1.209513
2008-09-08 06:37:14 51°14.586 2°54.57 18.4969 0.065054 0.359024 -1.209513
2008-09-08 06:37:19 51°14.591 2°54.559 18.5005 0.065054 0.35903 -1.209513
2008-09-08 06:37:24 51°14.595 2°54.549 18.4978 0.065054 0.35903 -1.209513
2008-09-08 06:37:30 51°14.601 2°54.536 18.4868 0.065054 0.359037 -1.244337
2008-09-08 06:37:34 51°14.605 2°54.528 18.4831 0.065054 0.359037 -1.244337
2008-09-08 06:37:39 51°14.609 2°54.517 18.5025 0.065054 0.359037 -1.209513
2008-09-08 06:37:44 51°14.614 2°54.506 18.4783 0.065054 0.359037 -1.209513
2008-09-08 06:37:49 51°14.618 2°54.496 18.498 0.065054 0.359037 -1.209513
2008-09-08 06:37:54 51°14.623 2°54.485 18.4922 0.065054 0.359043 -1.209513
2008-09-08 06:37:59 51°14.627 2°54.474 18.4974 0.065054 0.359043 -1.209513
2008-09-08 06:38:04 51°14.632 2°54.464 18.493 0.065054 0.359043 -1.209513
2008-09-08 06:38:10 51°14.637 2°54.451 18.5035 0.065054 0.359043 -1.209513
2008-09-08 06:38:14 51°14.64 2°54.442 18.4971 0.065054 0.359049 -1.209513
2008-09-08 06:38:19 51°14.645 2°54.432 18.5011 0.065054 0.359056 -1.209513
2008-09-08 06:38:24 51°14.649 2°54.421 18.4982 0.065054 0.359056 -1.209513
2008-09-08 06:38:30 51°14.654 2°54.408 18.4963 0.065054 0.359056 -1.209513
2008-09-08 06:38:34 51°14.657 2°54.399 18.4879 0.065054 0.359056 -1.209513
2008-09-08 06:38:39 51°14.661 2°54.388 18.4976 0.065054 0.359056 -1.209513
2008-09-08 06:38:44 51°14.664 2°54.378 18.4968 0.065054 0.359062 -1.209513
2008-09-08 06:38:50 51°14.668 2°54.364 18.5007 0.065054 0.359069 -1.209513
2008-09-08 06:38:54 51°14.67 2°54.355 18.4865 0.065054 0.359069 -1.209513
2008-09-08 06:38:59 51°14.672 2°54.344 18.4915 0.065054 0.359069 -1.209513
2008-09-08 06:39:04 51°14.674 2°54.333 18.4974 0.065054 0.359069 -1.209513
2008-09-08 06:39:10 51°14.676 2°54.32 18.4976 0.065054 0.359069 -1.209513
2008-09-08 06:39:14 51°14.678 2°54.311 18.4949 0.065054 0.359075 -1.209513
2008-09-08 06:39:19 51°14.679 2°54.299 18.4976 0.065054 0.359075 -1.209513
2008-09-08 06:39:24 51°14.681 2°54.288 18.4967 0.065054 0.359075 -1.209513
2008-09-08 06:39:30 51°14.682 2°54.274 18.4856 0.065054 0.359075 -1.209513
2008-09-08 06:39:34 51°14.683 2°54.265 18.4856 0.065054 0.359075 -1.209513
2008-09-08 06:39:39 51°14.684 2°54.254 18.4856 0.065054 0.359075 -1.209513
2008-09-08 06:39:44 51°14.685 2°54.242 18.4927 0.065054 0.359082 -1.209513
2008-09-08 06:39:49 51°14.686 2°54.231 18.4971 0.065054 0.359082 -1.209513
2008-09-08 06:39:54 51°14.687 2°54.219 18.4986 0.065054 0.359088 -1.209513
2008-09-08 06:39:59 51°14.688 2°54.207 18.5012 0.065054 0.359088 -1.209513
2008-09-08 06:40:04 51°14.689 2°54.195 18.4976 0.065054 0.359088 -1.209513
2008-09-08 06:40:09 51°14.69 2°54.184 18.4847 0.065054 0.359094 -1.209513
2008-09-08 06:40:14 51°14.691 2°54.172 18.4928 0.065054 0.359094 -1.209513
2008-09-08 06:40:19 51°14.692 2°54.16 18.4967 0.065054 0.359094 -1.209513
2008-09-08 06:40:24 51°14.693 2°54.149 18.4919 0.065054 0.359101 -1.209513
2008-09-08 06:40:30 51°14.695 2°54.134 18.492 0.065054 0.359101 -1.209513
2008-09-08 06:40:34 51°14.696 2°54.125 18.4965 0.065054 0.359101 -1.209513
2008-09-08 06:40:39 51°14.697 2°54.113 18.373 0.065054 0.359107 -1.209513
2008-09-08 06:40:44 51°14.698 2°54.101 17.6913 0.065054 0.359397 -0.826448
2008-09-08 06:40:50 51°14.7 2°54.087 17.5699 0.065054 0.357858 -0.443383
2008-09-08 06:40:54 51°14.701 2°54.078 17.4059 0.070302 0.389714 0.53169
2008-09-08 06:40:59 51°14.702 2°54.066 17.3558 1.154932 7.563918 1.924652
2008-09-08 06:41:04 51°14.703 2°54.054 17.3276 1.154932 7.563918 1.924652
2008-09-08 06:41:10 51°14.704 2°54.04 17.2841 2.166361 15.031639 1.437116
2008-09-08 06:41:14 51°14.705 2°54.031 17.2399 2.641312 18.74594 1.402292
2008-09-08 06:41:19 51°14.706 2°54.019 17.208 3.506323 25.812081 1.402292
2008-09-08 06:41:24 51°14.708 2°54.007 17.1807 4.066005 30.606031 1.332643
2008-09-08 06:41:30 51°14.709 2°53.993 17.1917 4.190184 31.813463 1.228171
2008-09-08 06:41:34 51°14.71 2°53.983 17.1767 4.190184 31.813463 1.228171
2008-09-08 06:41:39 51°14.711 2°53.971 17.1592 4.248602 32.401282 1.123699
2008-09-08 06:41:44 51°14.712 2°53.96 17.1844 4.292602 32.83914 1.123699
2008-09-08 06:41:50 51°14.713 2°53.945 17.1689 4.322803 33.145264 1.054051
2008-09-08 06:41:54 51°14.714 2°53.936 17.1629 4.356638 33.483844 1.019227
2008-09-08 06:41:59 51°14.715 2°53.924 17.1597 4.367952 33.607766 1.019227
2008-09-08 06:42:04 51°14.715 2°53.912 17.1674 4.367952 33.607766 1.019227
2008-09-08 06:42:09 51°14.716 2°53.9 17.1487 4.36816 33.630251 1.019227
2008-09-08 06:42:14 51°14.717 2°53.889 17.151 4.378851 33.735064 0.949579
2008-09-08 06:42:19 51°14.718 2°53.877 17.1544 4.382484 33.773759 0.949579
2008-09-08 06:42:24 51°14.719 2°53.865 17.1505 4.384872 33.80039 0.949579
2008-09-08 06:42:29 51°14.72 2°53.853 17.1514 4.388089 33.833522 0.949579
2008-09-08 06:42:34 51°14.721 2°53.841 17.1549 4.388089 33.833522 0.949579
2008-09-08 06:42:39 51°14.721 2°53.829 17.1553 4.389127 33.847863 0.914755
2008-09-08 06:42:44 51°14.722 2°53.817 17.1538 4.390996 33.87207 0.949579
2008-09-08 06:42:50 51°14.722 2°53.802 17.1567 4.392242 33.887541 0.949579
2008-09-08 06:42:54 51°14.722 2°53.793 17.1511 4.396601 33.926527 0.914755
2008-09-08 06:42:59 51°14.723 2°53.781 17.1495 4.397535 33.937295 0.879931
2008-09-08 06:43:04 51°14.724 2°53.769 17.1545 4.397535 33.937295 0.879931
2008-09-08 06:43:10 51°14.724 2°53.754 17.1567 4.39847 33.946037 0.879931
2008-09-08 06:43:14 51°14.725 2°53.745 17.1599 4.405943 34.011261 0.845107
2008-09-08 06:43:19 51°14.726 2°53.733 17.1582 4.402933 33.98526 0.914755
2008-09-08 06:43:24 51°14.726 2°53.721 17.1607 4.401065 33.9698 0.879931
2008-09-08 06:43:30 51°14.727 2°53.706 17.1614 4.3993 33.955913 0.845107
2008-09-08 06:43:34 51°14.727 2°53.697 17.1583 4.3993 33.955913 0.845107
2008-09-08 06:43:39 51°14.728 2°53.685 17.1592 4.40667 34.018892 0.845107
2008-09-08 06:43:44 51°14.729 2°53.672 17.157 4.388194 33.859341 0.879931
2008-09-08 06:43:50 51°14.729 2°53.658 17.1546 4.405632 34.009925 0.879931
2008-09-08 06:43:54 51°14.729 2°53.648 17.1576 4.405424 34.007455 0.845107
2008-09-08 06:43:59 51°14.73 2°53.636 17.1586 4.408331 34.031884 0.879931
2008-09-08 06:44:04 51°14.73 2°53.624 17.1602 4.408331 34.031884 0.879931
2008-09-08 06:44:10 51°14.731 2°53.609 17.1647 4.409265 34.039955 0.879931
2008-09-08 06:44:14 51°14.731 2°53.6 17.1618 4.403037 33.986833 0.845107
2008-09-08 06:44:19 51°14.731 2°53.587 17.1643 4.400961 33.96958 0.845107
2008-09-08 06:44:24 51°14.731 2°53.575 17.1662 4.409161 34.041092 0.845107
2008-09-08 06:44:29 51°14.732 2°53.563 17.1657 4.410095 34.048485 0.879931
2008-09-08 06:44:34 51°14.732 2°53.551 17.1662 4.410095 34.048485 0.879931
2008-09-08 06:44:39 51°14.732 2°53.539 17.167 4.408019 34.029872 0.845107
2008-09-08 06:44:44 51°14.732 2°53.527 17.1673 4.411652 34.060581 0.845107
2008-09-08 06:44:50 51°14.732 2°53.513 17.1663 4.412275 34.064606 0.845107
2008-09-08 06:44:54 51°14.733 2°53.503 17.1671 4.412379 34.064146 0.810283
2008-09-08 06:44:59 51°14.733 2°53.491 17.1688 4.413002 34.068849 0.810283
2008-09-08 06:45:04 51°14.733 2°53.479 17.1699 4.413002 34.068849 0.810283
2008-09-08 06:45:10 51°14.733 2°53.464 17.1682 4.412275 34.061893 0.845107
2008-09-08 06:45:14 51°14.734 2°53.454 17.1694 4.409057 34.034095 0.810283
2008-09-08 06:45:19 51°14.734 2°53.442 17.1702 4.410511 34.046649 0.810283
2008-09-08 06:45:24 51°14.734 2°53.43 17.1738 4.405528 34.003612 0.845107
2008-09-08 06:45:30 51°14.735 2°53.415 17.1711 4.400546 33.959908 0.810283
2008-09-08 06:45:34 51°14.735 2°53.405 17.1713 4.400546 33.959908 0.810283
2008-09-08 06:45:39 51°14.735 2°53.393 17.172 4.411445 34.054041 0.810283
2008-09-08 06:45:44 51°14.736 2°53.381 17.1712 4.410303 34.044178 0.810283
2008-09-08 06:45:50 51°14.736 2°53.367 17.1729 4.406981 34.015486 0.810283
2008-09-08 06:45:54 51°14.736 2°53.357 17.1739 4.413002 34.066136 0.810283
2008-09-08 06:45:59 51°14.736 2°53.345 17.1751 4.411549 34.052904 0.810283
2008-09-08 06:46:04 51°14.737 2°53.332 17.1758 4.411549 34.052904 0.810283
2008-09-08 06:46:10 51°14.737 2°53.318 17.1755 4.413209 34.067251 0.810283
2008-09-08 06:46:14 51°14.738 2°53.308 17.177 4.413106 34.066354 0.810283
2008-09-08 06:46:19 51°14.738 2°53.295 17.1752 4.413313 34.068148 0.810283
2008-09-08 06:46:24 51°14.739 2°53.283 17.18 4.41487 34.081599 0.775459
2008-09-08 06:46:29 51°14.739 2°53.271 17.1775 4.413936 34.072171 0.810283
2008-09-08 06:46:34 51°14.74 2°53.259 17.1783 4.413936 34.072171 0.810283
2008-09-08 06:46:39 51°14.74 2°53.246 17.1785 4.401168 33.961906 0.810283
2008-09-08 06:46:44 51°14.741 2°53.234 17.1805 4.409576 34.034513 0.810283
2008-09-08 06:46:50 51°14.741 2°53.218 17.1825 4.406877 34.010527 0.810283
2008-09-08 06:46:54 51°14.742 2°53.208 17.1761 4.414974 34.079782 0.810283
2008-09-08 06:46:59 51°14.742 2°53.196 17.1805 4.407812 34.017241 0.810283
2008-09-08 06:47:04 51°14.743 2°53.184 17.1774 4.407812 34.017241 0.810283
2008-09-08 06:47:09 51°14.743 2°53.172 17.1776 4.414559 34.075517 0.810283
2008-09-08 06:47:14 51°14.744 2°53.16 17.1798 4.413209 34.06386 0.810283
2008-09-08 06:47:19 51°14.744 2°53.148 17.1812 4.414144 34.070574 0.810283
2008-09-08 06:47:24 51°14.745 2°53.135 17.1772 4.414351 34.072367 0.775459
2008-09-08 06:47:30 51°14.745 2°53.12 17.1773 4.412171 34.053539 0.810283
2008-09-08 06:47:34 51°14.746 2°53.11 17.1774 4.412171 34.053539 0.810283
2008-09-08 06:47:39 51°14.746 2°53.098 17.1783 4.404282 33.986088 0.810283
2008-09-08 06:47:44 51°14.747 2°53.086 17.1795 4.415804 34.085599 0.879931
2008-09-08 06:47:50 51°14.747 2°53.071 17.178 4.413313 34.063401 0.775459
2008-09-08 06:47:54 51°14.747 2°53.062 17.1801 4.415493 34.08223 0.810283
2008-09-08 06:47:59 51°14.748 2°53.049 17.1793 4.413936 34.068781 0.810283
2008-09-08 06:48:04 51°14.748 2°53.038 17.1818 4.413936 34.068781 0.810283
2008-09-08 06:48:10 51°14.749 2°53.023 17.1783 4.416842 34.094566 0.810283
2008-09-08 06:48:14 51°14.749 2°53.014 17.1805 4.415493 34.08223 0.810283
2008-09-08 06:48:19 51°14.749 2°53.002 17.1778 4.417361 34.09905 0.810283
2008-09-08 06:48:24 51°14.749 2°52.99 17.1795 4.411652 34.049056 0.845107
2008-09-08 06:48:30 51°14.749 2°52.976 17.1789 4.412794 34.058918 0.810283
2008-09-08 06:48:34 51°14.749 2°52.966 17.1777 4.412794 34.058918 0.810283
2008-09-08 06:48:39 51°14.748 2°52.955 17.1756 4.41487 34.07685 0.810283
2008-09-08 06:48:44 51°14.748 2°52.943 17.1771 4.407915 34.016106 0.810283
2008-09-08 06:48:50 51°14.746 2°52.93 17.1774 4.40968 34.032023 0.845107
2008-09-08 06:48:54 51°14.746 2°52.92 17.1761 4.412587 34.057803 0.845107
2008-09-08 06:48:59 51°14.744 2°52.909 17.1754 4.411548 34.048837 0.810283
2008-09-08 06:49:04 51°14.743 2°52.898 17.175 4.411548 34.048837 0.810283
2008-09-08 06:49:09 51°14.742 2°52.887 17.1753 4.415804 34.086277 0.845107
2008-09-08 06:49:14 51°14.74 2°52.875 17.1743 4.418503 34.109593 0.845107
2008-09-08 06:49:19 51°14.739 2°52.864 17.1768 4.417569 34.102201 0.914755
2008-09-08 06:49:24 51°14.737 2°52.853 17.1754 4.415804 34.086956 0.879931
2008-09-08 06:49:30 51°14.735 2°52.839 17.1753 4.411964 34.054457 0.879931
2008-09-08 06:49:34 51°14.734 2°52.83 17.1728 4.411964 34.054457 0.879931
2008-09-08 06:49:39 51°14.732 2°52.819 17.1729 4.420891 34.132259 0.879931
2008-09-08 06:49:44 51°14.73 2°52.808 17.1743 4.418192 34.10894 0.879931
2008-09-08 06:49:50 51°14.728 2°52.794 17.1746 4.418192 34.108261 0.879931
2008-09-08 06:49:54 51°14.727 2°52.785 17.1737 4.417673 34.103776 0.879931
2008-09-08 06:49:59 51°14.725 2°52.774 17.1744 4.414455 34.075977 0.879931
2008-09-08 06:50:04 51°14.723 2°52.763 17.172 4.414455 34.075977 0.879931
2008-09-08 06:50:10 51°14.721 2°52.749 17.1735 4.408331 34.023755 0.914755
2008-09-08 06:50:14 51°14.719 2°52.74 17.1741 4.406981 34.012778 0.914755
2008-09-08 06:50:19 51°14.717 2°52.729 17.1726 4.413313 34.067469 0.879931
2008-09-08 06:50:24 51°14.715 2°52.718 17.1737 4.409161 34.031605 0.879931
2008-09-08 06:50:30 51°14.713 2°52.704 17.1727 4.337024 33.409422 0.914755
2008-09-08 06:50:34 51°14.712 2°52.695 17.1739 4.337024 33.409422 0.914755
2008-09-08 06:50:39 51°14.71 2°52.684 17.1695 4.425562 34.173306 0.914755
2008-09-08 06:50:44 51°14.709 2°52.673 17.1695 4.425666 34.174884 0.914755
2008-09-08 06:50:50 51°14.707 2°52.659 17.1696 4.425355 34.172192 0.914755
2008-09-08 06:50:54 51°14.706 2°52.65 17.1689 4.424732 34.16749 1.123699
2008-09-08 06:50:59 51°14.704 2°52.639 17.1692 4.423071 34.153136 1.297819
2008-09-08 06:51:04 51°14.703 2°52.628 17.1696 4.423071 34.153136 1.297819
2008-09-08 06:51:09 51°14.701 2°52.616 17.1701 4.422137 34.145062 1.228171
2008-09-08 06:51:14 51°14.7 2°52.605 17.1715 4.42224 34.146639 0.914755
2008-09-08 06:51:19 51°14.698 2°52.593 17.1701 4.422033 34.145525 0.914755
2008-09-08 06:51:24 51°14.696 2°52.582 17.1697 4.417154 34.104045 0.914755
2008-09-08 06:51:30 51°14.694 2°52.568 17.1705 4.421099 34.13881 0.914755
2008-09-08 06:51:34 51°14.693 2°52.559 17.1698 4.421099 34.13881 0.914755
2008-09-08 06:51:39 51°14.692 2°52.548 17.1699 4.418192 34.113693 0.879931
2008-09-08 06:51:44 51°14.69 2°52.536 17.1694 4.421825 34.14509 0.879931
2008-09-08 06:51:50 51°14.688 2°52.523 17.1674 4.415805 34.092385 0.879931
2008-09-08 06:51:54 51°14.687 2°52.514 17.1664 4.42058 34.133645 0.914755
2008-09-08 06:51:59 51°14.685 2°52.502 17.1667 4.417465 34.106735 0.879931
2008-09-08 06:52:04 51°14.684 2°52.491 17.1673 4.417465 34.106735 0.879931
2008-09-08 06:52:10 51°14.682 2°52.478 17.1671 4.418503 34.115705 0.845107
2008-09-08 06:52:14 51°14.68 2°52.469 17.1674 4.417777 34.110105 0.845107
2008-09-08 06:52:19 51°14.679 2°52.458 17.1671 4.420787 34.136119 0.845107
2008-09-08 06:52:24 51°14.677 2°52.446 17.1671 4.416427 34.099803 0.845107
2008-09-08 06:52:30 51°14.675 2°52.433 17.1682 4.417465 34.108773 0.879931
2008-09-08 06:52:34 51°14.673 2°52.424 17.1667 4.417465 34.108773 0.879931
2008-09-08 06:52:39 51°14.672 2°52.413 17.1665 4.415701 34.094203 0.845107
2008-09-08 06:52:44 51°14.67 2°52.402 17.1664 4.417569 34.10967 0.879931
2008-09-08 06:52:50 51°14.667 2°52.389 17.167 4.415805 34.094421 0.845107
2008-09-08 06:52:54 51°14.666 2°52.38 17.166 4.410614 34.049579 0.845107
2008-09-08 06:52:59 51°14.664 2°52.369 17.1651 4.419126 34.123125 0.879931
2008-09-08 06:53:04 51°14.661 2°52.358 17.1635 4.419126 34.123125 0.879931
2008-09-08 06:53:10 51°14.659 2°52.345 17.1638 4.420372 34.13457 0.845107
2008-09-08 06:53:14 51°14.657 2°52.336 17.1637 4.421929 34.148027 0.845107
2008-09-08 06:53:19 51°14.656 2°52.325 17.1645 4.422137 34.150501 0.845107
2008-09-08 06:53:24 51°14.653 2°52.315 17.1647 4.416739 34.103852 0.845107
2008-09-08 06:53:30 51°14.651 2°52.302 17.163 4.423279 34.161051 0.845107
2008-09-08 06:53:34 51°14.649 2°52.293 17.1637 4.423279 34.161051 0.845107
2008-09-08 06:53:39 51°14.647 2°52.282 17.1631 4.421721 34.147593 0.845107
2008-09-08 06:53:44 51°14.645 2°52.271 17.1635 4.422448 34.154553 0.914755
2008-09-08 06:53:50 51°14.642 2°52.258 17.1632 4.420268 34.135712 0.879931
2008-09-08 06:53:54 51°14.641 2°52.249 17.1601 4.420787 34.140878 0.845107
2008-09-08 06:53:59 51°14.639 2°52.238 17.1601 4.421929 34.150747 0.879931
2008-09-08 06:54:04 51°14.637 2°52.227 17.1609 4.421929 34.150747 0.879931
2008-09-08 06:54:09 51°14.635 2°52.216 17.1596 4.421721 34.148953 0.879931
2008-09-08 06:54:14 51°14.633 2°52.205 17.16 4.418815 34.123831 0.879931
2008-09-08 06:54:19 51°14.631 2°52.194 17.159 4.414248 34.08504 0.879931
2008-09-08 06:54:24 51°14.629 2°52.183 17.1592 4.421306 34.146044 0.879931
2008-09-08 06:54:30 51°14.627 2°52.17 17.1591 4.423175 34.162875 0.914755
2008-09-08 06:54:34 51°14.625 2°52.161 17.1598 4.423175 34.162875 0.914755
2008-09-08 06:54:39 51°14.622 2°52.151 17.1593 4.42058 34.141123 0.914755
2008-09-08 06:54:44 51°14.62 2°52.14 17.161 4.42359 34.167825 0.879931
2008-09-08 06:54:50 51°14.618 2°52.127 17.16 4.421825 34.15257 0.845107
2008-09-08 06:54:54 51°14.616 2°52.119 17.1607 4.41923 34.130818 0.879931
2008-09-08 06:54:59 51°14.614 2°52.108 17.1597 4.420476 34.141585 0.879931
2008-09-08 06:55:04 51°14.612 2°52.097 17.1582 4.420476 34.141585 0.879931
2008-09-08 06:55:10 51°14.609 2°52.084 17.1593 4.422656 34.160429 0.879931
2008-09-08 06:55:14 51°14.608 2°52.075 17.1601 4.419334 34.131036 0.879931
2008-09-08 06:55:19 51°14.605 2°52.065 17.1601 4.422656 34.159749 0.845107
2008-09-08 06:55:24 51°14.604 2°52.053 17.1576 4.421618 34.150776 0.810283
2008-09-08 06:55:30 51°14.601 2°52.041 17.1596 4.421722 34.152353 0.845107
2008-09-08 06:55:34 51°14.599 2°52.032 17.1584 4.421722 34.152353 0.845107
2008-09-08 06:55:39 51°14.597 2°52.021 17.1589 4.422656 34.160429 0.879931
2008-09-08 06:55:44 51°14.595 2°52.01 17.1578 4.420061 34.137996 0.845107
2008-09-08 06:55:50 51°14.593 2°51.996 17.1577 4.422137 34.155942 0.879931
2008-09-08 06:55:54 51°14.592 2°51.987 17.1571 4.423486 34.168289 0.879931
2008-09-08 06:55:59 51°14.589 2°51.976 17.1579 4.418192 34.122525 0.845107
2008-09-08 06:56:04 51°14.588 2°51.966 17.1573 4.418192 34.122525 0.845107
2008-09-08 06:56:09 51°14.585 2°51.954 17.157 4.422967 34.163802 0.879931
2008-09-08 06:56:14 51°14.583 2°51.943 17.1562 4.419126 34.130601 0.879931
2008-09-08 06:56:19 51°14.581 2°51.933 17.1564 4.419542 34.13487 0.879931
2008-09-08 06:56:24 51°14.579 2°51.921 17.1563 4.422552 34.160893 0.879931
2008-09-08 06:56:30 51°14.577 2°51.908 17.1562 4.41622 34.106837 0.879931
2008-09-08 06:56:34 51°14.575 2°51.899 17.157 4.41622 34.106837 0.879931
2008-09-08 06:56:40 51°14.573 2°51.886 17.1559 4.418192 34.123885 0.879931
2008-09-08 06:56:44 51°14.571 2°51.877 17.1588 4.419126 34.13196 0.845107
2008-09-08 06:56:50 51°14.569 2°51.864 17.1557 4.420995 34.148112 0.845107
2008-09-08 06:56:54 51°14.567 2°51.855 17.1568 4.419438 34.135332 0.845107
2008-09-08 06:56:59 51°14.565 2°51.843 17.1568 4.421203 34.150587 0.879931
2008-09-08 06:57:04 51°14.564 2°51.832 17.156 4.421203 34.150587 0.879931
2008-09-08 06:57:10 51°14.561 2°51.819 17.1563 4.416428 34.109311 0.879931
2008-09-08 06:57:14 51°14.56 2°51.81 17.1555 4.420995 34.148792 0.879931
2008-09-08 06:57:19 51°14.558 2°51.799 17.1573 4.414144 34.089573 0.879931
2008-09-08 06:57:24 51°14.556 2°51.788 17.1573 4.420891 34.147895 0.879931
2008-09-08 06:57:30 51°14.553 2°51.775 17.1571 4.420165 34.141613 0.879931
2008-09-08 06:57:34 51°14.552 2°51.766 17.1565 4.420165 34.141613 0.879931
2008-09-08 06:57:39 51°14.55 2°51.755 17.1552 4.418919 34.130845 0.879931
2008-09-08 06:57:44 51°14.548 2°51.744 17.1548 4.420684 34.1461 0.879931
2008-09-08 06:57:50 51°14.545 2°51.731 17.1541 4.418711 34.129051 0.879931
2008-09-08 06:57:54 51°14.544 2°51.722 17.1555 4.419646 34.137127 0.845107
2008-09-08 06:57:59 51°14.542 2°51.711 17.1543 4.419957 34.139819 0.914755
2008-09-08 06:58:04 51°14.541 2°51.7 17.154 4.419957 34.139819 0.914755
2008-09-08 06:58:09 51°14.539 2°51.689 17.154 4.42058 34.144523 0.879931
2008-09-08 06:58:14 51°14.537 2°51.677 17.1528 4.42058 34.145883 0.914755
2008-09-08 06:58:19 51°14.535 2°51.666 17.1532 4.419853 34.140281 0.879931
2008-09-08 06:58:24 51°14.533 2°51.655 17.1536 4.419023 34.133102 0.879931
2008-09-08 06:58:30 51°14.532 2°51.641 17.1534 4.418192 34.125924 0.879931
2008-09-08 06:58:34 51°14.53 2°51.633 17.1541 4.418192 34.125924 0.879931
2008-09-08 06:58:39 51°14.528 2°51.621 17.1531 4.419542 34.137589 0.879931
2008-09-08 06:58:44 51°14.526 2°51.61 17.1553 4.422863 34.166987 0.879931
2008-09-08 06:58:50 51°14.524 2°51.597 17.1543 4.418504 34.129296 0.879931
2008-09-08 06:58:54 51°14.521 2°51.589 17.154 4.420891 34.149936 0.914755
2008-09-08 06:58:59 51°14.519 2°51.578 17.1539 4.419023 34.133782 0.879931
2008-09-08 06:59:04 51°14.517 2°51.568 17.1538 4.419023 34.133782 0.879931
2008-09-08 06:59:10 51°14.514 2°51.555 17.1536 4.421618 34.156218 0.879931
2008-09-08 06:59:14 51°14.512 2°51.546 17.1543 4.423071 34.168783 0.879931
2008-09-08 06:59:19 51°14.51 2°51.535 17.1525 4.422137 34.160705 0.879931
2008-09-08 06:59:24 51°14.507 2°51.525 17.1531 4.416947 34.115836 0.879931
2008-09-08 06:59:30 51°14.504 2°51.511 17.154 4.422863 34.166987 0.914755
2008-09-08 06:59:34 51°14.502 2°51.503 17.154 4.422863 34.166987 0.914755
2008-09-08 06:59:39 51°14.5 2°51.492 17.1535 4.423383 34.171475 0.879931
2008-09-08 06:59:44 51°14.497 2°51.481 17.1554 4.422241 34.161603 0.879931
2008-09-08 06:59:50 51°14.495 2°51.468 17.1535 4.423175 34.16968 0.879931
2008-09-08 06:59:54 51°14.493 2°51.459 17.1534 4.422241 34.161603 0.879931
2008-09-08 06:59:59 51°14.49 2°51.448 17.1537 4.421306 34.153525 0.879931
2008-09-08 07:00:04 51°14.488 2°51.438 17.1548 4.421306 34.153525 0.879931
2008-09-08 07:00:10 51°14.485 2°51.424 17.1551 4.422033 34.159808 0.949579
2008-09-08 07:00:14 51°14.483 2°51.416 17.1543 4.421306 34.153525 0.845107
2008-09-08 07:00:19 51°14.481 2°51.405 17.154 4.414352 34.092726 0.914755
2008-09-08 07:00:24 51°14.479 2°51.394 17.1538 4.421099 34.15173 0.879931
2008-09-08 07:00:30 51°14.476 2°51.381 17.1512 4.419542 34.138269 0.914755
2008-09-08 07:00:34 51°14.474 2°51.372 17.1525 4.419542 34.138269 0.914755
2008-09-08 07:00:39 51°14.471 2°51.362 17.1541 4.422448 34.163397 0.845107
2008-09-08 07:00:44 51°14.469 2°51.351 17.1549 4.421306 34.153525 0.879931
2008-09-08 07:00:50 51°14.466 2°51.339 17.1536 4.42141 34.153742 0.879931
2008-09-08 07:00:54 51°14.464 2°51.33 17.1534 4.421306 34.153525 0.914755
2008-09-08 07:00:59 51°14.461 2°51.319 17.1541 4.420165 34.143654 0.879931
2008-09-08 07:01:04 51°14.459 2°51.309 17.1538 4.420165 34.143654 0.879931
2008-09-08 07:01:10 51°14.456 2°51.296 17.1533 4.421825 34.158693 0.879931
2008-09-08 07:01:14 51°14.454 2°51.287 17.1533 4.419334 34.137154 0.879931
2008-09-08 07:01:19 51°14.452 2°51.277 17.1531 4.421618 34.156218 0.845107
2008-09-08 07:01:24 51°14.449 2°51.266 17.1531 4.422137 34.161386 0.845107
2008-09-08 07:01:30 51°14.446 2°51.253 17.1551 4.422344 34.1625 0.879931
2008-09-08 07:01:34 51°14.445 2°51.244 17.1555 4.422344 34.1625 0.879931
2008-09-08 07:01:39 51°14.442 2°51.234 17.1556 4.419957 34.141859 0.879931
2008-09-08 07:01:44 51°14.44 2°51.223 17.1572 4.422656 34.165192 0.914755
2008-09-08 07:01:50 51°14.437 2°51.21 17.1561 4.42141 34.154423 0.914755
2008-09-08 07:01:54 51°14.435 2°51.202 17.1553 4.421929 34.15891 0.879931
2008-09-08 07:01:59 51°14.433 2°51.191 17.1564 4.422552 34.164295 0.914755
2008-09-08 07:02:04 51°14.43 2°51.181 17.1559 4.422552 34.164295 0.914755
2008-09-08 07:02:10 51°14.427 2°51.168 17.1544 4.42276 34.165409 0.879931
2008-09-08 07:02:14 51°14.425 2°51.159 17.1533 4.420268 34.143191 0.914755
2008-09-08 07:02:19 51°14.423 2°51.148 17.1562 4.417985 34.12277 0.879931
2008-09-08 07:02:24 51°14.421 2°51.137 17.1542 4.421099 34.14969 0.914755
2008-09-08 07:02:30 51°14.418 2°51.124 17.1548 4.420476 34.144986 0.914755
2008-09-08 07:02:34 51°14.416 2°51.116 17.1547 4.420476 34.144986 0.914755
2008-09-08 07:02:39 51°14.413 2°51.105 17.156 4.420684 34.14678 0.914755
2008-09-08 07:02:44 51°14.411 2°51.094 17.1536 4.420476 34.144986 0.879931
2008-09-08 07:02:49 51°14.408 2°51.083 17.1548 4.413002 34.080384 0.879931
2008-09-08 07:02:54 51°14.406 2°51.071 17.1539 4.416843 34.11358 0.914755
2008-09-08 07:02:59 51°14.404 2°51.06 17.157 4.424109 34.176396 0.879931
2008-09-08 07:03:04 51°14.402 2°51.049 17.1549 4.424109 34.176396 0.879931
2008-09-08 07:03:10 51°14.399 2°51.036 17.1549 4.423902 34.174601 0.914755
2008-09-08 07:03:14 51°14.397 2°51.027 17.1541 4.422863 34.166307 0.914755
2008-09-08 07:03:19 51°14.395 2°51.016 17.1537 4.422552 34.162934 0.914755
2008-09-08 07:03:24 51°14.392 2°51.005 17.1553 4.424628 34.181565 0.914755
2008-09-08 07:03:30 51°14.39 2°50.992 17.1554 4.424317 34.178191 0.914755
2008-09-08 07:03:34 51°14.387 2°50.983 17.1541 4.424317 34.178191 0.914755
2008-09-08 07:03:39 51°14.385 2°50.973 17.1553 4.424005 34.175499 0.914755
2008-09-08 07:03:44 51°14.382 2°50.962 17.1568 4.423486 34.171011 0.914755
2008-09-08 07:03:50 51°14.379 2°50.949 17.1552 4.424836 34.18336 0.914755
2008-09-08 07:03:54 51°14.377 2°50.941 17.1556 4.425251 34.18695 0.879931
2008-09-08 07:03:59 51°14.374 2°50.93 17.1547 4.424836 34.18336 0.914755
2008-09-08 07:04:04 51°14.372 2°50.92 17.1552 4.424836 34.18336 0.914755
2008-09-08 07:04:10 51°14.368 2°50.907 17.1548 4.424109 34.176396 0.879931
2008-09-08 07:04:14 51°14.366 2°50.899 17.155 4.425355 34.187167 0.914755
2008-09-08 07:04:19 51°14.363 2°50.888 17.1557 4.424213 34.177294 0.914755
2008-09-08 07:04:24 51°14.36 2°50.878 17.1544 4.425459 34.188745 0.879931
2008-09-08 07:04:30 51°14.357 2°50.865 17.1544 4.425459 34.188064 0.949579
2008-09-08 07:04:34 51°14.354 2°50.857 17.1543 4.425459 34.188064 0.949579
2008-09-08 07:04:39 51°14.352 2°50.846 17.1555 4.425355 34.187167 0.914755
2008-09-08 07:04:44 51°14.349 2°50.836 17.1562 4.425147 34.185372 0.914755
2008-09-08 07:04:50 51°14.345 2°50.823 17.1555 4.425459 34.187383 0.914755
2008-09-08 07:04:54 51°14.343 2°50.815 17.1576 4.424628 34.180203 0.914755
2008-09-08 07:04:59 51°14.34 2°50.805 17.1568 4.425562 34.188281 0.949579
2008-09-08 07:05:04 51°14.337 2°50.794 17.1559 4.425562 34.188281 0.949579
2008-09-08 07:05:10 51°14.334 2°50.782 17.1576 4.425459 34.187383 0.949579
2008-09-08 07:05:14 51°14.332 2°50.774 17.1556 4.425562 34.188962 0.914755
2008-09-08 07:05:19 51°14.329 2°50.763 17.1551 4.425874 34.190974 0.879931
2008-09-08 07:05:24 51°14.326 2°50.753 17.1576 4.425459 34.187383 0.914755
2008-09-08 07:05:30 51°14.323 2°50.74 17.1545 4.42494 34.182215 0.949579
2008-09-08 07:05:34 51°14.321 2°50.732 17.1554 4.42494 34.182215 0.949579
2008-09-08 07:05:39 51°14.318 2°50.722 17.1552 4.425043 34.183112 0.914755
2008-09-08 07:05:44 51°14.315 2°50.712 17.156 4.425978 34.19119 0.879931
2008-09-08 07:05:50 51°14.312 2°50.699 17.156 4.42577 34.189395 0.879931
2008-09-08 07:05:54 51°14.31 2°50.691 17.1554 4.425874 34.190292 0.949579
2008-09-08 07:05:59 51°14.307 2°50.68 17.1551 4.425978 34.19119 0.879931
2008-09-08 07:06:04 51°14.304 2°50.67 17.1573 4.425978 34.19119 0.879931
2008-09-08 07:06:10 51°14.301 2°50.657 17.1541 4.42577 34.190076 0.879931
2008-09-08 07:06:14 51°14.299 2°50.649 17.1547 4.425978 34.191871 0.879931
2008-09-08 07:06:19 51°14.296 2°50.638 17.1544 4.426185 34.193666 0.914755
2008-09-08 07:06:24 51°14.294 2°50.627 17.1564 4.426497 34.196359 0.879931
2008-09-08 07:06:30 51°14.291 2°50.614 17.1546 4.4266 34.197257 0.879931
2008-09-08 07:06:34 51°14.288 2°50.606 17.1558 4.4266 34.197257 0.879931
2008-09-08 07:06:39 51°14.286 2°50.595 17.1553 4.426185 34.193666 0.879931
2008-09-08 07:06:44 51°14.283 2°50.584 17.1565 4.426393 34.196143 0.914755
2008-09-08 07:06:50 51°14.28 2°50.571 17.1547 4.421099 34.14969 0.879931
2008-09-08 07:06:54 51°14.278 2°50.563 17.1546 4.426393 34.196143 0.914755
2008-09-08 07:06:59 51°14.275 2°50.552 17.1551 4.4266 34.197257 0.879931
2008-09-08 07:07:04 51°14.272 2°50.541 17.1562 4.4266 34.197257 0.879931
2008-09-08 07:07:10 51°14.269 2°50.529 17.1547 4.422967 34.165843 0.914755
2008-09-08 07:07:14 51°14.267 2°50.52 17.1536 4.426081 34.192769 0.914755
2008-09-08 07:07:19 51°14.264 2°50.509 17.1542 4.425978 34.191871 0.914755
2008-09-08 07:07:24 51°14.261 2°50.498 17.1551 4.426081 34.19345 0.879931
2008-09-08 07:07:30 51°14.258 2°50.485 17.1553 4.426497 34.19704 0.845107
2008-09-08 07:07:34 51°14.256 2°50.477 17.1537 4.426497 34.19704 0.845107
2008-09-08 07:07:39 51°14.253 2°50.466 17.1529 4.426393 34.195461 0.949579
2008-09-08 07:07:44 51°14.25 2°50.456 17.1548 4.426497 34.196359 0.879931
2008-09-08 07:07:49 51°14.247 2°50.445 17.1548 4.426289 34.195245 0.914755
2008-09-08 07:07:54 51°14.244 2°50.435 17.1539 4.426912 34.200631 0.879931
2008-09-08 07:07:59 51°14.242 2°50.424 17.1538 4.426185 34.194347 0.879931
2008-09-08 07:08:04 51°14.239 2°50.413 17.153 4.426185 34.194347 0.879931
2008-09-08 07:08:10 51°14.236 2°50.4 17.1538 4.426289 34.195926 0.845107
2008-09-08 07:08:14 51°14.233 2°50.392 17.1536 4.426393 34.196824 0.845107
2008-09-08 07:08:19 51°14.23 2°50.381 17.1546 4.426497 34.197721 0.914755
2008-09-08 07:08:24 51°14.227 2°50.371 17.154 4.426704 34.199517 0.879931
2008-09-08 07:08:30 51°14.224 2°50.358 17.1521 4.426081 34.194131 0.949579
2008-09-08 07:08:34 51°14.221 2°50.349 17.1524 4.426081 34.194131 0.949579
2008-09-08 07:08:39 51°14.218 2°50.339 17.1532 4.426497 34.197721 0.879931
2008-09-08 07:08:44 51°14.216 2°50.328 17.1534 4.426289 34.196607 0.914755
2008-09-08 07:08:50 51°14.212 2°50.315 17.1557 4.426185 34.195028 0.914755
2008-09-08 07:08:54 51°14.21 2°50.307 17.1546 4.426704 34.199517 0.914755
2008-09-08 07:08:59 51°14.207 2°50.295 17.1545 4.426808 34.200414 0.914755
2008-09-08 07:09:05 51°14.204 2°50.283 17.1564 4.426497 34.198403 0.879931
2008-09-08 07:09:10 51°14.201 2°50.273 17.1546 4.426497 34.198403 0.879931
2008-09-08 07:09:14 51°14.199 2°50.265 17.1542 4.426393 34.196824 0.949579
2008-09-08 07:09:19 51°14.196 2°50.254 17.1536 4.426704 34.199517 0.879931
2008-09-08 07:09:24 51°14.193 2°50.244 17.1544 4.425978 34.193233 0.914755
2008-09-08 07:09:30 51°14.19 2°50.231 17.1543 4.425978 34.192552 0.914755
2008-09-08 07:09:34 51°14.188 2°50.223 17.1549 4.425978 34.192552 0.914755
2008-09-08 07:09:39 51°14.185 2°50.213 17.1553 4.426081 34.192769 0.949579
2008-09-08 07:09:44 51°14.182 2°50.202 17.1537 4.426393 34.195461 0.949579
2008-09-08 07:09:49 51°14.179 2°50.192 17.1563 4.426497 34.19704 0.949579
2008-09-08 07:09:54 51°14.177 2°50.181 17.1551 4.426912 34.200631 0.949579
2008-09-08 07:09:59 51°14.174 2°50.171 17.1539 4.425978 34.192552 0.949579
2008-09-08 07:10:04 51°14.171 2°50.16 17.1528 4.425978 34.192552 0.949579
2008-09-08 07:10:10 51°14.168 2°50.148 17.1529 4.426393 34.196143 0.949579
2008-09-08 07:10:14 51°14.165 2°50.139 17.1539 4.426393 34.196143 0.949579
2008-09-08 07:10:20 51°14.162 2°50.127 17.1522 4.426081 34.19345 0.914755
2008-09-08 07:10:24 51°14.16 2°50.118 17.1534 4.426393 34.196143 0.914755
2008-09-08 07:10:30 51°14.156 2°50.106 17.1533 4.426289 34.195245 0.949579
2008-09-08 07:10:34 51°14.154 2°50.097 17.1516 4.426289 34.195245 0.949579
2008-09-08 07:10:39 51°14.151 2°50.087 17.1534 4.426393 34.196824 0.914755
2008-09-08 07:10:44 51°14.148 2°50.076 17.152 4.425978 34.193233 0.949579
2008-09-08 07:10:50 51°14.145 2°50.063 17.151 4.426393 34.196824 0.914755
2008-09-08 07:10:54 51°14.142 2°50.055 17.1509 4.426601 34.1993 0.914755
2008-09-08 07:10:59 51°14.14 2°50.045 17.1515 4.40231 33.989356 0.914755
2008-09-08 07:11:05 51°14.136 2°50.032 17.1508 4.40231 33.989356 0.914755
2008-09-08 07:11:10 51°14.133 2°50.021 17.1505 4.426808 34.201095 0.949579
2008-09-08 07:11:14 51°14.131 2°50.013 17.1501 4.426704 34.200198 0.914755
2008-09-08 07:11:19 51°14.128 2°50.002 17.1512 4.426601 34.1993 0.914755
2008-09-08 07:11:24 51°14.125 2°49.992 17.1506 4.426497 34.199084 0.914755
2008-09-08 07:11:30 51°14.122 2°49.979 17.1514 4.426601 34.199981 0.914755
2008-09-08 07:11:34 51°14.12 2°49.971 17.1518 4.426601 34.199981 0.914755
2008-09-08 07:11:39 51°14.117 2°49.96 17.1513 4.426601 34.200663 0.914755
2008-09-08 07:11:44 51°14.114 2°49.949 17.1507 4.426601 34.200663 0.914755
2008-09-08 07:11:50 51°14.111 2°49.937 17.1511 4.426497 34.199765 0.949579
2008-09-08 07:11:54 51°14.109 2°49.928 17.1521 4.426497 34.199765 0.949579
2008-09-08 07:11:59 51°14.106 2°49.918 17.1505 4.426497 34.199765 0.984403
2008-09-08 07:12:04 51°14.103 2°49.907 17.1524 4.426497 34.199765 0.984403
2008-09-08 07:12:10 51°14.1 2°49.894 17.1516 4.426497 34.199084 0.984403
2008-09-08 07:12:14 51°14.097 2°49.886 17.1519 4.426497 34.199765 1.019227
2008-09-08 07:12:19 51°14.095 2°49.875 17.151 4.426393 34.198186 1.019227
2008-09-08 07:12:24 51°14.092 2°49.865 17.1524 4.426393 34.198867 0.984403
2008-09-08 07:12:30 51°14.088 2°49.852 17.1504 4.426497 34.199765 0.949579
2008-09-08 07:12:34 51°14.086 2°49.843 17.1503 4.426497 34.199765 0.949579
2008-09-08 07:12:39 51°14.083 2°49.832 17.1505 4.426497 34.199765 1.019227
2008-09-08 07:12:44 51°14.08 2°49.822 17.1515 4.426497 34.199765 1.019227
2008-09-08 07:12:50 51°14.077 2°49.809 17.1508 4.426497 34.199084 0.984403
2008-09-08 07:12:54 51°14.075 2°49.801 17.1507 4.426497 34.199084 0.949579
2008-09-08 07:12:59 51°14.071 2°49.79 17.1513 4.426393 34.198867 0.984403
2008-09-08 07:13:05 51°14.069 2°49.778 17.1508 4.426393 34.198867 0.984403
2008-09-08 07:13:10 51°14.065 2°49.767 17.1515 4.426497 34.199084 0.984403
2008-09-08 07:13:14 51°14.064 2°49.759 17.1494 4.426393 34.198186 0.984403
2008-09-08 07:13:19 51°14.061 2°49.748 17.1519 4.426393 34.198186 0.984403
2008-09-08 07:13:24 51°14.058 2°49.738 17.1506 4.426393 34.198186 1.019227
2008-09-08 07:13:30 51°14.055 2°49.725 17.152 4.426497 34.199765 0.949579
2008-09-08 07:13:34 51°14.053 2°49.716 17.1498 4.426497 34.199765 0.949579
2008-09-08 07:13:39 51°14.05 2°49.706 17.1493 4.426393 34.198867 0.984403
2008-09-08 07:13:44 51°14.047 2°49.695 17.1492 4.426497 34.199765 1.054051
2008-09-08 07:13:50 51°14.044 2°49.683 17.1494 4.426393 34.198867 1.019227
2008-09-08 07:13:54 51°14.042 2°49.674 17.1498 4.426393 34.198867 0.984403
2008-09-08 07:13:59 51°14.039 2°49.664 17.1495 4.426497 34.199765 1.019227
2008-09-08 07:14:04 51°14.037 2°49.654 17.1498 4.426497 34.199765 1.019227
2008-09-08 07:14:10 51°14.033 2°49.641 17.1494 4.426497 34.199765 1.019227
2008-09-08 07:14:14 51°14.031 2°49.633 17.1485 4.426393 34.199549 1.019227
2008-09-08 07:14:19 51°14.028 2°49.622 17.1482 4.426393 34.199549 0.984403
2008-09-08 07:14:24 51°14.026 2°49.611 17.1483 4.425874 34.19506 0.984403
2008-09-08 07:14:30 51°14.022 2°49.599 17.1479 4.426082 34.196856 0.984403
2008-09-08 07:14:34 51°14.02 2°49.59 17.1479 4.426082 34.196856 0.984403
2008-09-08 07:14:39 51°14.017 2°49.579 17.1477 4.426185 34.198435 0.984403
2008-09-08 07:14:44 51°14.015 2°49.569 17.1461 4.42577 34.194844 0.949579
2008-09-08 07:14:50 51°14.012 2°49.556 17.1474 4.425874 34.195741 1.019227
2008-09-08 07:14:54 51°14.009 2°49.547 17.1464 4.425874 34.196423 0.914755
2008-09-08 07:14:59 51°14.007 2°49.536 17.1479 4.425874 34.196423 0.984403
2008-09-08 07:15:05 51°14.003 2°49.523 17.1469 4.425874 34.196423 0.984403
2008-09-08 07:15:10 51°14.001 2°49.513 17.15 4.426082 34.1989 0.949579
2008-09-08 07:15:14 51°13.998 2°49.505 17.1498 4.42577 34.196206 0.984403
2008-09-08 07:15:19 51°13.995 2°49.494 17.1478 4.425666 34.195309 0.949579
2008-09-08 07:15:24 51°13.993 2°49.483 17.1497 4.426185 34.199797 0.949579
2008-09-08 07:15:30 51°13.989 2°49.47 17.1498 4.425874 34.197104 0.949579
2008-09-08 07:15:34 51°13.987 2°49.462 17.1482 4.425874 34.197104 0.949579
2008-09-08 07:15:39 51°13.985 2°49.452 17.1489 4.425666 34.195309 1.019227
2008-09-08 07:15:45 51°13.981 2°49.439 17.1482 4.425874 34.196423 1.019227
2008-09-08 07:15:50 51°13.979 2°49.428 17.1483 4.425874 34.196423 1.054051
2008-09-08 07:15:54 51°13.976 2°49.42 17.148 4.42577 34.195525 1.019227
2008-09-08 07:15:59 51°13.974 2°49.409 17.1463 4.425874 34.195741 1.088875
2008-09-08 07:16:04 51°13.971 2°49.399 17.1475 4.425874 34.195741 1.088875
2008-09-08 07:16:10 51°13.967 2°49.386 17.1467 4.42577 34.195525 1.054051
2008-09-08 07:16:14 51°13.965 2°49.378 17.1481 4.425562 34.193048 1.054051
2008-09-08 07:16:19 51°13.962 2°49.368 17.1476 4.425666 34.194627 1.019227
2008-09-08 07:16:24 51°13.959 2°49.358 17.1474 4.425874 34.196423 1.019227
2008-09-08 07:16:30 51°13.955 2°49.345 17.1468 4.42577 34.195525 0.984403
2008-09-08 07:16:34 51°13.953 2°49.337 17.1469 4.42577 34.195525 0.984403
2008-09-08 07:16:39 51°13.949 2°49.326 17.1462 4.425874 34.197104 1.019227
2008-09-08 07:16:44 51°13.946 2°49.316 17.1468 4.425978 34.198002 1.019227
2008-09-08 07:16:50 51°13.942 2°49.304 17.1468 4.425978 34.198002 1.019227
2008-09-08 07:16:54 51°13.94 2°49.295 17.1473 4.426082 34.1989 1.019227
2008-09-08 07:16:59 51°13.937 2°49.285 17.1465 4.426082 34.1989 1.054051
2008-09-08 07:17:04 51°13.934 2°49.275 17.1471 4.426082 34.1989 1.054051
2008-09-08 07:17:10 51°13.929 2°49.262 17.1469 4.426289 34.200695 0.984403
2008-09-08 07:17:14 51°13.927 2°49.254 17.1468 4.425978 34.198002 0.984403
2008-09-08 07:17:20 51°13.923 2°49.241 17.1479 4.426082 34.199581 0.984403
2008-09-08 07:17:24 51°13.92 2°49.233 17.1484 4.425978 34.198683 0.984403
2008-09-08 07:17:30 51°13.916 2°49.221 17.147 4.426082 34.199581 0.984403
2008-09-08 07:17:34 51°13.913 2°49.213 17.1473 4.426082 34.199581 0.984403
2008-09-08 07:17:39 51°13.909 2°49.203 17.1469 4.426393 34.202274 0.984403
2008-09-08 07:17:45 51°13.905 2°49.191 17.1457 4.426289 34.201376 0.984403
2008-09-08 07:17:50 51°13.902 2°49.181 17.1461 4.426185 34.200479 0.984403
2008-09-08 07:17:54 51°13.899 2°49.173 17.147 4.426082 34.1989 0.949579
2008-09-08 07:17:59 51°13.895 2°49.163 17.1481 4.426082 34.1989 0.984403
2008-09-08 07:18:04 51°13.893 2°49.153 17.1467 4.426082 34.1989 0.984403
2008-09-08 07:18:10 51°13.888 2°49.141 17.1479 4.426185 34.199797 1.019227
2008-09-08 07:18:14 51°13.886 2°49.132 17.1465 4.425978 34.198002 0.984403
2008-09-08 07:18:19 51°13.883 2°49.122 17.1477 4.426497 34.20249 0.949579
2008-09-08 07:18:24 51°13.879 2°49.111 17.1466 4.426497 34.20249 0.949579
2008-09-08 07:18:29 51°13.876 2°49.102 17.1479 4.426393 34.200911 0.949579
2008-09-08 07:18:34 51°13.873 2°49.091 17.147 4.426393 34.200911 0.949579
2008-09-08 07:18:39 51°13.87 2°49.081 17.1483 4.42712 34.207196 0.949579
2008-09-08 07:18:44 51°13.867 2°49.07 17.1474 4.426393 34.201593 0.949579
2008-09-08 07:18:50 51°13.863 2°49.058 17.1473 4.426601 34.203388 0.984403
2008-09-08 07:18:54 51°13.86 2°49.05 17.1476 4.426808 34.205184 1.019227
2008-09-08 07:18:59 51°13.857 2°49.04 17.1488 4.426808 34.205184 0.984403
2008-09-08 07:19:04 51°13.854 2°49.029 17.149 4.426808 34.205184 0.984403
2008-09-08 07:19:10 51°13.85 2°49.017 17.1485 4.427016 34.206979 1.019227
2008-09-08 07:19:14 51°13.847 2°49.008 17.1486 4.427016 34.206298 1.019227
2008-09-08 07:19:19 51°13.844 2°48.999 17.1486 4.426497 34.20249 1.054051
2008-09-08 07:19:24 51°13.84 2°48.989 17.1489 4.427535 34.210787 1.019227
2008-09-08 07:19:30 51°13.836 2°48.976 17.1499 4.427016 34.206298 1.019227
2008-09-08 07:19:34 51°13.834 2°48.969 17.1501 4.427016 34.206298 1.019227
2008-09-08 07:19:39 51°13.83 2°48.958 17.149 4.426704 34.202923 0.984403
2008-09-08 07:19:44 51°13.827 2°48.948 17.1488 4.42712 34.206514 1.019227
2008-09-08 07:19:50 51°13.823 2°48.936 17.1497 4.427016 34.205616 1.019227
2008-09-08 07:19:54 51°13.82 2°48.928 17.1503 4.427327 34.20831 1.019227
2008-09-08 07:19:59 51°13.817 2°48.918 17.1498 4.427016 34.205616 0.984403
2008-09-08 07:20:04 51°13.814 2°48.908 17.1493 4.427016 34.205616 0.984403
2008-09-08 07:20:10 51°13.81 2°48.895 17.1497 4.427223 34.207412 0.984403
2008-09-08 07:20:14 51°13.807 2°48.887 17.1488 4.427223 34.20673 0.914755
2008-09-08 07:20:19 51°13.804 2°48.876 17.149 4.42795 34.213014 0.984403
2008-09-08 07:20:24 51°13.801 2°48.866 17.1504 4.427431 34.208526 0.949579
2008-09-08 07:20:30 51°13.796 2°48.854 17.1493 4.427535 34.209423 0.914755
2008-09-08 07:20:34 51°13.794 2°48.845 17.1506 4.427535 34.209423 0.914755
2008-09-08 07:20:39 51°13.791 2°48.836 17.1521 4.428261 34.215708 0.949579
2008-09-08 07:20:44 51°13.788 2°48.825 17.1512 4.427742 34.211219 0.949579
2008-09-08 07:20:50 51°13.783 2°48.813 17.1505 4.428158 34.21481 0.914755
2008-09-08 07:20:54 51°13.781 2°48.805 17.1507 4.428158 34.21481 0.879931
2008-09-08 07:20:59 51°13.777 2°48.795 17.1511 4.427639 34.20964 0.914755
2008-09-08 07:21:04 51°13.774 2°48.785 17.1517 4.427639 34.20964 0.914755
2008-09-08 07:21:10 51°13.77 2°48.773 17.1503 4.428261 34.215026 0.914755
2008-09-08 07:21:14 51°13.767 2°48.764 17.1519 4.427431 34.207163 0.949579
2008-09-08 07:21:19 51°13.764 2°48.754 17.1519 4.428158 34.214128 0.949579
2008-09-08 07:21:24 51°13.761 2°48.744 17.1506 4.427846 34.210754 0.914755
2008-09-08 07:21:30 51°13.757 2°48.731 17.1519 4.427639 34.208958 0.914755
2008-09-08 07:21:34 51°13.754 2°48.723 17.1521 4.427639 34.208958 0.914755
2008-09-08 07:21:39 51°13.751 2°48.713 17.1546 4.428158 34.213447 0.914755
2008-09-08 07:21:44 51°13.747 2°48.702 17.1531 4.427846 34.210072 0.914755
2008-09-08 07:21:50 51°13.743 2°48.69 17.1539 4.428158 34.212765 0.879931
2008-09-08 07:21:54 51°13.741 2°48.681 17.1532 4.428677 34.217254 0.879931
2008-09-08 07:21:59 51°13.737 2°48.671 17.1525 4.428054 34.211868 0.914755
2008-09-08 07:22:04 51°13.734 2°48.66 17.155 4.428054 34.211868 0.914755
2008-09-08 07:22:10 51°13.73 2°48.648 17.1544 4.428469 34.215458 0.914755
2008-09-08 07:22:14 51°13.728 2°48.64 17.1541 4.42795 34.210288 0.914755
2008-09-08 07:22:19 51°13.724 2°48.63 17.1534 4.428573 34.214993 0.949579
2008-09-08 07:22:24 51°13.721 2°48.619 17.1527 4.428573 34.214993 0.914755
2008-09-08 07:22:30 51°13.717 2°48.607 17.1556 4.428469 34.214777 0.879931
2008-09-08 07:22:34 51°13.714 2°48.599 17.1539 4.428469 34.214777 0.879931
2008-09-08 07:22:39 51°13.711 2°48.589 17.1553 4.428677 34.215891 0.914755
2008-09-08 07:22:44 51°13.707 2°48.579 17.1553 4.428573 34.214993 0.914755
2008-09-08 07:22:50 51°13.704 2°48.566 17.154 4.428677 34.215891 0.879931
2008-09-08 07:22:54 51°13.701 2°48.558 17.1571 4.428261 34.211618 0.914755
2008-09-08 07:22:59 51°13.698 2°48.547 17.1562 4.429092 34.2188 0.879931
2008-09-08 07:23:04 51°13.694 2°48.537 17.1559 4.429092 34.2188 0.879931
2008-09-08 07:23:10 51°13.691 2°48.525 17.1548 4.428884 34.217004 0.914755
2008-09-08 07:23:14 51°13.688 2°48.516 17.1565 4.428677 34.215209 0.914755
2008-09-08 07:23:19 51°13.684 2°48.506 17.1558 4.429196 34.219016 0.914755
2008-09-08 07:23:24 51°13.681 2°48.496 17.1563 4.428261 34.210937 0.879931
2008-09-08 07:23:29 51°13.678 2°48.485 17.1563 4.429299 34.219913 0.879931
2008-09-08 07:23:34 51°13.674 2°48.475 17.1565 4.429299 34.219913 0.879931
2008-09-08 07:23:39 51°13.671 2°48.464 17.1558 4.428884 34.216323 0.914755
2008-09-08 07:23:44 51°13.667 2°48.454 17.157 4.429299 34.219913 0.879931
2008-09-08 07:23:50 51°13.663 2°48.442 17.1561 4.429507 34.221027 0.879931
2008-09-08 07:23:54 51°13.66 2°48.434 17.1577 4.429299 34.219232 0.879931
2008-09-08 07:23:59 51°13.657 2°48.424 17.1573 4.429299 34.21855 0.879931
2008-09-08 07:24:04 51°13.654 2°48.413 17.1562 4.429299 34.21855 0.879931
2008-09-08 07:24:10 51°13.65 2°48.401 17.1565 4.429507 34.220346 0.914755
2008-09-08 07:24:14 51°13.647 2°48.393 17.1564 4.429611 34.221243 0.879931
2008-09-08 07:24:19 51°13.644 2°48.382 17.1573 4.429403 34.219448 0.879931
2008-09-08 07:24:24 51°13.641 2°48.372 17.1573 4.429403 34.219448 0.879931
2008-09-08 07:24:30 51°13.637 2°48.359 17.1564 4.429715 34.222141 0.949579
2008-09-08 07:24:34 51°13.634 2°48.351 17.1586 4.429715 34.222141 0.949579
2008-09-08 07:24:39 51°13.631 2°48.341 17.1584 4.429611 34.221243 0.914755
2008-09-08 07:24:45 51°13.626 2°48.329 17.159 4.429715 34.222141 0.879931
2008-09-08 07:24:50 51°13.623 2°48.319 17.1593 4.429818 34.222357 0.914755
2008-09-08 07:24:54 51°13.62 2°48.311 17.1588 4.429507 34.219664 0.914755
2008-09-08 07:24:59 51°13.617 2°48.3 17.1589 4.429715 34.221459 0.914755
2008-09-08 07:25:04 51°13.614 2°48.29 17.1601 4.429715 34.221459 0.914755
2008-09-08 07:25:10 51°13.61 2°48.277 17.1603 4.429818 34.222357 0.845107
2008-09-08 07:25:14 51°13.607 2°48.269 17.1613 4.429922 34.222573 0.879931
2008-09-08 07:25:19 51°13.604 2°48.259 17.1618 4.429922 34.221891 0.845107
2008-09-08 07:25:24 51°13.6 2°48.249 17.1624 4.429715 34.220096 0.845107
2008-09-08 07:25:30 51°13.596 2°48.236 17.1623 4.429818 34.220994 0.879931
2008-09-08 07:25:34 51°13.593 2°48.228 17.1612 4.429818 34.220994 0.879931
2008-09-08 07:25:39 51°13.59 2°48.218 17.1614 4.429818 34.220312 0.879931
2008-09-08 07:25:44 51°13.586 2°48.207 17.1614 4.430026 34.222107 0.879931
2008-09-08 07:25:50 51°13.582 2°48.195 17.1607 4.429715 34.218733 0.810283
2008-09-08 07:25:54 51°13.58 2°48.186 17.1609 4.43013 34.221642 0.845107
2008-09-08 07:26:00 51°13.576 2°48.174 17.1614 4.43013 34.221642 0.845107
2008-09-08 07:26:04 51°13.573 2°48.166 17.1627 4.43013 34.221642 0.845107
2008-09-08 07:26:10 51°13.569 2°48.153 17.1645 4.43013 34.221642 0.810283
2008-09-08 07:26:14 51°13.567 2°48.145 17.1625 4.430026 34.220744 0.879931
2008-09-08 07:26:19 51°13.563 2°48.135 17.1642 4.430026 34.220744 0.845107
2008-09-08 07:26:24 51°13.56 2°48.125 17.1649 4.430234 34.222539 0.879931
2008-09-08 07:26:30 51°13.556 2°48.112 17.1627 4.43013 34.221642 0.879931
2008-09-08 07:26:34 51°13.554 2°48.104 17.1631 4.43013 34.221642 0.879931
2008-09-08 07:26:39 51°13.551 2°48.094 17.1643 4.43013 34.22096 0.879931
2008-09-08 07:26:45 51°13.546 2°48.082 17.1629 4.430234 34.221858 0.914755
2008-09-08 07:26:50 51°13.543 2°48.072 17.1656 4.430337 34.222074 0.914755
2008-09-08 07:26:54 51°13.541 2°48.063 17.1627 4.429922 34.218484 0.879931
2008-09-08 07:26:59 51°13.538 2°48.053 17.1631 4.430441 34.22229 0.879931
2008-09-08 07:27:04 51°13.534 2°48.043 17.1625 4.430441 34.22229 0.879931
2008-09-08 07:27:10 51°13.53 2°48.031 17.1637 4.430337 34.221392 0.914755
2008-09-08 07:27:14 51°13.528 2°48.023 17.1633 4.430234 34.220495 0.914755
2008-09-08 07:27:19 51°13.524 2°48.013 17.1643 4.430234 34.220495 0.879931
2008-09-08 07:27:24 51°13.521 2°48.003 17.1641 4.430545 34.223187 0.879931
2008-09-08 07:27:30 51°13.516 2°47.991 17.1651 4.430545 34.223187 0.879931
2008-09-08 07:27:34 51°13.513 2°47.983 17.1658 4.430545 34.223187 0.879931
2008-09-08 07:27:39 51°13.51 2°47.973 17.1653 4.430545 34.223187 0.914755
2008-09-08 07:27:44 51°13.506 2°47.963 17.1645 4.430545 34.223187 0.845107
2008-09-08 07:27:50 51°13.502 2°47.951 17.1658 4.430545 34.223187 0.879931
2008-09-08 07:27:54 51°13.5 2°47.943 17.1667 4.430649 34.224085 0.845107
2008-09-08 07:27:59 51°13.496 2°47.933 17.1648 4.430441 34.221608 0.845107
2008-09-08 07:28:04 51°13.493 2°47.923 17.1654 4.430441 34.221608 0.845107
2008-09-08 07:28:10 51°13.488 2°47.911 17.1654 4.430649 34.223403 0.879931
2008-09-08 07:28:14 51°13.486 2°47.903 17.1635 4.430753 34.224301 0.845107
2008-09-08 07:28:19 51°13.482 2°47.893 17.1648 4.430753 34.223619 0.845107
2008-09-08 07:28:24 51°13.479 2°47.882 17.1639 4.430753 34.222938 0.845107
2008-09-08 07:28:30 51°13.475 2°47.87 17.165 4.430753 34.222938 0.845107
2008-09-08 07:28:34 51°13.472 2°47.862 17.1663 4.430753 34.222938 0.845107
2008-09-08 07:28:39 51°13.469 2°47.852 17.166 4.430753 34.222938 0.845107
2008-09-08 07:28:45 51°13.464 2°47.84 17.1674 4.430753 34.223619 0.879931
2008-09-08 07:28:50 51°13.462 2°47.829 17.1676 4.430753 34.223619 0.845107
2008-09-08 07:28:54 51°13.459 2°47.82 17.1671 4.430856 34.225198 0.879931
2008-09-08 07:28:59 51°13.457 2°47.81 17.167 4.430753 34.223619 0.845107
2008-09-08 07:29:04 51°13.455 2°47.799 17.1686 4.430753 34.223619 0.845107
2008-09-08 07:29:10 51°13.452 2°47.785 17.1685 4.430856 34.223835 0.845107
2008-09-08 07:29:14 51°13.451 2°47.776 17.1693 4.430856 34.223835 0.879931
2008-09-08 07:29:19 51°13.449 2°47.765 17.1697 4.430856 34.223154 0.879931
2008-09-08 07:29:25 51°13.448 2°47.751 17.1694 4.43096 34.22337 0.810283
2008-09-08 07:29:30 51°13.447 2°47.74 17.1692 4.43096 34.22337 0.845107
2008-09-08 07:29:34 51°13.447 2°47.73 17.1707 4.43096 34.22337 0.845107
2008-09-08 07:29:39 51°13.446 2°47.719 17.1719 4.431064 34.224267 0.845107
2008-09-08 07:29:44 51°13.447 2°47.707 17.1717 4.431064 34.223586 0.845107
2008-09-08 07:29:50 51°13.448 2°47.693 17.1726 4.431064 34.222905 0.810283
2008-09-08 07:29:54 51°13.449 2°47.684 17.1728 4.431168 34.223802 0.810283
2008-09-08 07:29:59 51°13.451 2°47.672 17.1734 4.431168 34.223802 0.810283
2008-09-08 07:30:04 51°13.453 2°47.66 17.1726 4.431168 34.223802 0.810283
2008-09-08 07:30:10 51°13.456 2°47.646 17.1727 4.431168 34.223121 0.810283
2008-09-08 07:30:14 51°13.458 2°47.637 17.1725 4.431168 34.222439 0.845107
2008-09-08 07:30:19 51°13.461 2°47.626 17.1737 4.431272 34.222655 0.810283
2008-09-08 07:30:24 51°13.464 2°47.615 17.1742 4.431272 34.221974 0.845107
2008-09-08 07:30:30 51°13.468 2°47.602 17.173 4.431375 34.222871 0.845107
2008-09-08 07:30:34 51°13.472 2°47.593 17.1751 4.431375 34.222871 0.845107
2008-09-08 07:30:39 51°13.476 2°47.583 17.1746 4.431375 34.222871 0.810283
2008-09-08 07:30:45 51°13.482 2°47.572 17.1749 4.431479 34.223769 0.845107
2008-09-08 07:30:50 51°13.486 2°47.562 17.1741 4.431479 34.223087 0.845107
2008-09-08 07:30:54 51°13.491 2°47.554 17.1751 4.431583 34.223985 0.810283
2008-09-08 07:31:00 51°13.497 2°47.543 17.1744 4.431583 34.223303 0.845107
2008-09-08 07:31:04 51°13.501 2°47.535 17.1734 4.431583 34.223303 0.845107
2008-09-08 07:31:10 51°13.508 2°47.524 17.1737 4.431583 34.223303 0.879931
2008-09-08 07:31:14 51°13.512 2°47.517 17.1739 4.431687 34.224201 0.845107
2008-09-08 07:31:19 51°13.518 2°47.508 17.1751 4.431687 34.223519 0.879931
2008-09-08 07:31:24 51°13.524 2°47.499 17.1742 4.431687 34.223519 0.845107
2008-09-08 07:31:30 51°13.531 2°47.488 17.1724 4.431687 34.223519 0.845107
2008-09-08 07:31:34 51°13.536 2°47.481 17.1729 4.431687 34.223519 0.845107
2008-09-08 07:31:39 51°13.542 2°47.472 17.1732 4.431791 34.224417 0.845107
2008-09-08 07:31:45 51°13.549 2°47.461 17.1737 4.431791 34.225098 0.845107
2008-09-08 07:31:50 51°13.555 2°47.452 17.1754 4.431791 34.225098 0.845107
2008-09-08 07:31:54 51°13.56 2°47.445 17.175 4.431791 34.225098 0.845107
2008-09-08 07:31:59 51°13.566 2°47.436 17.1745 4.431791 34.225098 0.879931
2008-09-08 07:32:04 51°13.572 2°47.427 17.1749 4.431791 34.225098 0.879931
2008-09-08 07:32:10 51°13.579 2°47.415 17.1756 4.431791 34.225779 0.879931
2008-09-08 07:32:14 51°13.584 2°47.408 17.1757 4.431791 34.225779 0.879931
2008-09-08 07:32:19 51°13.59 2°47.398 17.1768 4.431791 34.225098 0.879931
2008-09-08 07:32:24 51°13.596 2°47.389 17.1771 4.431791 34.225098 0.879931
2008-09-08 07:32:30 51°13.603 2°47.378 17.1788 4.431894 34.225314 0.879931
2008-09-08 07:32:34 51°13.608 2°47.37 17.1806 4.431894 34.225314 0.879931
2008-09-08 07:32:39 51°13.614 2°47.361 17.1817 4.431894 34.225314 0.879931
2008-09-08 07:32:44 51°13.62 2°47.351 17.1825 4.431894 34.225314 0.949579
2008-09-08 07:32:50 51°13.626 2°47.34 17.1828 4.431998 34.22553 0.914755
2008-09-08 07:32:54 51°13.631 2°47.332 17.1839 4.432102 34.225746 0.914755
2008-09-08 07:33:00 51°13.638 2°47.321 17.1859 4.432206 34.225962 0.914755
2008-09-08 07:33:04 51°13.643 2°47.313 17.1892 4.432206 34.225962 0.914755
2008-09-08 07:33:10 51°13.649 2°47.302 17.192 4.432206 34.225281 0.949579
2008-09-08 07:33:14 51°13.654 2°47.294 17.1931 4.432309 34.224815 0.949579
2008-09-08 07:33:19 51°13.66 2°47.284 17.1946 4.432413 34.225031 0.879931
2008-09-08 07:33:24 51°13.666 2°47.275 17.1968 4.431687 34.217389 0.914755
2008-09-08 07:33:30 51°13.673 2°47.263 17.1985 4.432725 34.224998 0.879931
2008-09-08 07:33:34 51°13.677 2°47.256 17.1998 4.432725 34.224998 0.879931
2008-09-08 07:33:39 51°13.683 2°47.246 17.2012 4.432828 34.224533 0.914755
2008-09-08 07:33:45 51°13.69 2°47.235 17.203 4.433036 34.224284 0.879931
2008-09-08 07:33:50 51°13.696 2°47.225 17.2042 4.433244 34.224035 0.914755
2008-09-08 07:33:54 51°13.7 2°47.217 17.2051 4.433347 34.22357 0.949579
2008-09-08 07:33:59 51°13.706 2°47.208 17.2047 4.433555 34.223321 0.879931
2008-09-08 07:34:04 51°13.712 2°47.198 17.2046 4.433555 34.223321 0.879931
2008-09-08 07:34:10 51°13.719 2°47.186 17.2032 4.433763 34.223073 0.879931
2008-09-08 07:34:14 51°13.723 2°47.178 17.2026 4.433866 34.222608 0.879931
2008-09-08 07:34:19 51°13.729 2°47.169 17.202 4.434074 34.22304 0.914755
2008-09-08 07:34:24 51°13.734 2°47.159 17.2005 4.434074 34.221678 0.879931
2008-09-08 07:34:30 51°13.741 2°47.147 17.2015 4.434074 34.220317 0.845107
2008-09-08 07:34:34 51°13.746 2°47.139 17.2012 4.434074 34.220317 0.845107
2008-09-08 07:34:39 51°13.752 2°47.129 17.1995 4.434178 34.221214 0.845107
2008-09-08 07:34:44 51°13.757 2°47.119 17.1995 4.434074 34.220317 0.810283
2008-09-08 07:34:50 51°13.764 2°47.108 17.2001 4.434074 34.220998 0.845107
2008-09-08 07:34:54 51°13.768 2°47.1 17.2005 4.433866 34.219204 0.810283
2008-09-08 07:35:00 51°13.775 2°47.088 17.2023 4.433762 34.218988 0.775459
2008-09-08 07:35:04 51°13.78 2°47.08 17.2031 4.433762 34.218988 0.775459
2008-09-08 07:35:10 51°13.787 2°47.069 17.2039 4.433659 34.218772 0.810283
2008-09-08 07:35:15 51°13.794 2°47.061 17.2051 4.433555 34.217875 0.740634
2008-09-08 07:35:19 51°13.799 2°47.054 17.2067 4.433451 34.217659 0.740634
2008-09-08 07:35:24 51°13.806 2°47.046 17.2083 4.433347 34.216762 0.740634
2008-09-08 07:35:30 51°13.814 2°47.037 17.2097 4.433243 34.215185 0.670986
2008-09-08 07:35:34 51°13.82 2°47.031 17.2119 4.433243 34.215185 0.670986
2008-09-08 07:35:40 51°13.828 2°47.022 17.2153 4.433243 34.214504 0.670986
2008-09-08 07:35:44 51°13.834 2°47.016 17.2149 4.433243 34.213143 0.670986
2008-09-08 07:35:50 51°13.843 2°47.008 17.2166 4.433243 34.212463 0.70581
2008-09-08 07:35:54 51°13.849 2°47.004 17.2178 4.433243 34.211102 0.670986
2008-09-08 07:35:59 51°13.857 2°46.998 17.2189 4.433243 34.209741 0.70581
2008-09-08 07:36:04 51°13.864 2°46.992 17.2211 4.433243 34.209741 0.70581
2008-09-08 07:36:10 51°13.874 2°46.986 17.2224 4.433243 34.20838 0.636162
2008-09-08 07:36:14 51°13.88 2°46.982 17.2238 4.433347 34.207236 0.601338
2008-09-08 07:36:19 51°13.888 2°46.977 17.2249 4.433347 34.205876 0.636162
2008-09-08 07:36:24 51°13.896 2°46.973 17.2268 4.433451 34.205412 0.601338
2008-09-08 07:36:30 51°13.906 2°46.967 17.229 4.433451 34.204052 0.601338
2008-09-08 07:36:34 51°13.912 2°46.964 17.2289 4.433451 34.204052 0.601338
2008-09-08 07:36:39 51°13.92 2°46.959 17.2303 4.433555 34.203588 0.601338
2008-09-08 07:36:44 51°13.929 2°46.955 17.2313 4.433658 34.202444 0.601338
2008-09-08 07:36:50 51°13.938 2°46.95 17.2318 4.433658 34.201084 0.601338
2008-09-08 07:36:54 51°13.945 2°46.946 17.2325 4.433762 34.200621 0.601338
2008-09-08 07:36:59 51°13.953 2°46.942 17.2336 4.433762 34.199261 0.636162
2008-09-08 07:37:04 51°13.96 2°46.938 17.2348 4.433762 34.199261 0.636162
2008-09-08 07:37:10 51°13.97 2°46.932 17.2367 4.433866 34.198798 0.601338
2008-09-08 07:37:14 51°13.976 2°46.929 17.2371 4.433866 34.198118 0.601338
2008-09-08 07:37:19 51°13.984 2°46.924 17.2386 4.43397 34.197655 0.636162
2008-09-08 07:37:24 51°13.992 2°46.92 17.239 4.43397 34.196975 0.601338
2008-09-08 07:37:30 51°14.001 2°46.914 17.2396 4.43397 34.195616 0.636162
2008-09-08 07:37:34 51°14.008 2°46.911 17.2404 4.43397 34.195616 0.636162
2008-09-08 07:37:40 51°14.017 2°46.905 17.2414 4.434073 34.195833 0.636162
2008-09-08 07:37:44 51°14.024 2°46.902 17.243 4.434073 34.194473 0.636162
2008-09-08 07:37:50 51°14.033 2°46.896 17.2436 4.434073 34.193114 0.601338
2008-09-08 07:37:54 51°14.039 2°46.892 17.2449 4.434177 34.193331 0.636162
2008-09-08 07:37:59 51°14.047 2°46.887 17.246 4.434177 34.192651 0.601338
2008-09-08 07:38:04 51°14.055 2°46.883 17.2464 4.434177 34.192651 0.601338
2008-09-08 07:38:10 51°14.065 2°46.877 17.246 4.434281 34.192189 0.636162
2008-09-08 07:38:14 51°14.071 2°46.873 17.2464 4.434281 34.191509 0.636162
2008-09-08 07:38:19 51°14.079 2°46.868 17.2464 4.434385 34.191047 0.636162
2008-09-08 07:38:25 51°14.088 2°46.863 17.2472 4.434489 34.191263 0.670986
2008-09-08 07:38:30 51°14.096 2°46.858 17.2484 4.434385 34.189009 0.670986
2008-09-08 07:38:34 51°14.102 2°46.855 17.2488 4.434385 34.189009 0.670986
2008-09-08 07:38:39 51°14.11 2°46.85 17.2487 4.434489 34.189225 0.70581
2008-09-08 07:38:44 51°14.118 2°46.846 17.2486 4.434489 34.188546 0.670986
2008-09-08 07:38:50 51°14.127 2°46.84 17.2493 4.434592 34.189442 0.70581
2008-09-08 07:38:54 51°14.134 2°46.837 17.2505 4.434592 34.188763 0.670986
2008-09-08 07:38:59 51°14.142 2°46.832 17.2496 4.434696 34.188979 0.70581
2008-09-08 07:39:04 51°14.149 2°46.828 17.2495 4.434696 34.188979 0.70581
2008-09-08 07:39:09 51°14.157 2°46.823 17.25 4.434696 34.1883 0.636162
2008-09-08 07:39:14 51°14.165 2°46.818 17.249 4.4348 34.189196 0.670986
2008-09-08 07:39:19 51°14.173 2°46.813 17.2486 4.4348 34.188517 0.70581
2008-09-08 07:39:24 51°14.181 2°46.808 17.249 4.4348 34.188517 0.70581
2008-09-08 07:39:30 51°14.19 2°46.803 17.2497 4.434904 34.188733 0.740634
2008-09-08 07:39:34 51°14.197 2°46.8 17.2488 4.434904 34.188733 0.740634
2008-09-08 07:39:39 51°14.205 2°46.796 17.2484 4.434904 34.188733 0.70581
2008-09-08 07:39:44 51°14.212 2°46.791 17.2486 4.434904 34.188733 0.740634
2008-09-08 07:39:50 51°14.222 2°46.786 17.2477 4.435008 34.189629 0.740634
2008-09-08 07:39:54 51°14.228 2°46.782 17.2464 4.435008 34.189629 0.70581
2008-09-08 07:39:59 51°14.236 2°46.777 17.2461 4.435008 34.189629 0.740634
2008-09-08 07:40:04 51°14.244 2°46.772 17.2466 4.435008 34.189629 0.740634
2008-09-08 07:40:10 51°14.253 2°46.766 17.2452 4.435008 34.189629 0.775459
2008-09-08 07:40:14 51°14.26 2°46.763 17.2451 4.435008 34.190308 0.740634
2008-09-08 07:40:19 51°14.268 2°46.757 17.2446 4.435111 34.191204 0.775459
2008-09-08 07:40:25 51°14.277 2°46.752 17.2426 4.435111 34.191204 0.740634
2008-09-08 07:40:30 51°14.285 2°46.746 17.2414 4.435111 34.191883 0.775459
2008-09-08 07:40:34 51°14.291 2°46.742 17.2407 4.435111 34.191883 0.775459
2008-09-08 07:40:39 51°14.299 2°46.738 17.2389 4.435111 34.192563 0.775459
2008-09-08 07:40:44 51°14.307 2°46.733 17.2364 4.435111 34.193242 0.775459
2008-09-08 07:40:50 51°14.316 2°46.727 17.2342 4.435111 34.193242 0.775459